Wetterdaten: Mittwoch, 12.06.2019
Datum Zeit Temp. Aussen Temp. o. S. +5cm Feuchte Auss Luftdruck Regen Sonnenschein Regendauer Solar Windben Empfang
12.06.2019 00:00 17,1 C 15,6 C 15,0 C 73 % 1010,8 hPa 0,0 l/m 0 min 0 min 0 W/m 6,4 km/h (2 Bft) 97,87 %
12.06.2019 00:02 17,1 C 15,6 C 15,0 C 72 % 1010,8 hPa 0,0 l/m 0 min 0 min 0 W/m 3,2 km/h (1 Bft) 100,00 %
12.06.2019 00:04 17,1 C 15,6 C 15,0 C 73 % 1010,9 hPa 0,0 l/m 0 min 0 min 0 W/m 3,2 km/h (1 Bft) 100,00 %
12.06.2019 00:07 17,0 C 15,6 C 15,0 C 73 % 1010,7 hPa 0,0 l/m 0 min 0 min 0 W/m 3,2 km/h (1 Bft) 100,00 %
12.06.2019 00:08 17,0 C 15,6 C 15,0 C 73 % 1010,6 hPa 0,0 l/m 0 min 0 min 0 W/m 0,0 km/h (0 Bft) 100,00 %
12.06.2019 00:10 17,0 C 15,6 C 15,0 C 73 % 1010,6 hPa 0,0 l/m 0 min 0 min 0 W/m 0,0 km/h (0 Bft) 97,87 %
12.06.2019 00:12 16,9 C 15,6 C 15,0 C 73 % 1010,5 hPa 0,0 l/m 0 min 0 min 0 W/m 3,2 km/h (1 Bft) 100,00 %
12.06.2019 00:14 16,9 C 15,6 C 15,0 C 73 % 1010,5 hPa 0,0 l/m 0 min 0 min 0 W/m 3,2 km/h (1 Bft) 100,00 %
12.06.2019 00:16 16,9 C 15,6 C 15,0 C 74 % 1010,5 hPa 0,0 l/m 0 min 0 min 0 W/m 3,2 km/h (1 Bft) 97,87 %
12.06.2019 00:18 16,9 C 15,6 C 15,0 C 74 % 1010,5 hPa 0,0 l/m 0 min 0 min 0 W/m 3,2 km/h (1 Bft) 100,00 %
12.06.2019 00:20 16,8 C 15,6 C 15,0 C 74 % 1010,5 hPa 0,0 l/m 0 min 0 min 0 W/m 9,7 km/h (2 Bft) 100,00 %
12.06.2019 00:22 16,8 C 15,6 C 15,0 C 74 % 1010,4 hPa 0,0 l/m 0 min 0 min 0 W/m 3,2 km/h (1 Bft) 97,87 %
12.06.2019 00:24 16,8 C 15,6 C 15,0 C 74 % 1010,5 hPa 0,0 l/m 0 min 0 min 0 W/m 3,2 km/h (1 Bft) 97,87 %
12.06.2019 00:26 16,8 C 15,6 C 15,0 C 74 % 1010,4 hPa 0,0 l/m 0 min 0 min 0 W/m 3,2 km/h (1 Bft) 100,00 %
12.06.2019 00:28 16,8 C 15,6 C 15,0 C 74 % 1010,4 hPa 0,0 l/m 0 min 0 min 0 W/m 9,7 km/h (2 Bft) 100,00 %
12.06.2019 00:30 16,7 C 15,6 C 15,0 C 74 % 1010,4 hPa 0,0 l/m 0 min 0 min 0 W/m 3,2 km/h (1 Bft) 100,00 %
12.06.2019 00:32 16,7 C 15,6 C 15,0 C 74 % 1010,4 hPa 0,0 l/m 0 min 0 min 0 W/m 6,4 km/h (2 Bft) 100,00 %
12.06.2019 00:34 16,7 C 15,6 C 15,0 C 74 % 1010,3 hPa 0,0 l/m 0 min 0 min 0 W/m 6,4 km/h (2 Bft) 97,87 %
12.06.2019 00:36 16,7 C 15,6 C 15,0 C 74 % 1010,4 hPa 0,0 l/m 0 min 0 min 0 W/m 3,2 km/h (1 Bft) 97,87 %
12.06.2019 00:38 16,7 C 15,6 C 15,0 C 74 % 1010,4 hPa 0,0 l/m 0 min 0 min 0 W/m 3,2 km/h (1 Bft) 100,00 %
12.06.2019 00:40 16,6 C 15,6 C 15,0 C 74 % 1010,4 hPa 0,0 l/m 0 min 0 min 0 W/m 3,2 km/h (1 Bft) 100,00 %
12.06.2019 00:42 16,6 C 15,6 C 15,0 C 74 % 1010,3 hPa 0,0 l/m 0 min 0 min 0 W/m 3,2 km/h (1 Bft) 100,00 %
12.06.2019 00:44 16,6 C 15,6 C 15,0 C 74 % 1010,3 hPa 0,0 l/m 0 min 0 min 0 W/m 3,2 km/h (1 Bft) 100,00 %
12.06.2019 00:46 16,6 C 15,6 C 15,0 C 74 % 1010,3 hPa 0,0 l/m 0 min 0 min 0 W/m 3,2 km/h (1 Bft) 100,00 %
12.06.2019 00:48 16,6 C 15,0 C 15,0 C 74 % 1010,3 hPa 0,0 l/m 0 min 0 min 0 W/m 0,0 km/h (0 Bft) 100,00 %
12.06.2019 00:50 16,5 C 15,0 C 15,0 C 74 % 1010,4 hPa 0,0 l/m 0 min 0 min 0 W/m 0,0 km/h (0 Bft) 97,87 %
12.06.2019 00:52 16,5 C 15,0 C 14,4 C 75 % 1010,3 hPa 0,0 l/m 0 min 0 min 0 W/m 0,0 km/h (0 Bft) 100,00 %
12.06.2019 00:54 16,5 C 15,0 C 14,4 C 75 % 1010,4 hPa 0,0 l/m 0 min 0 min 0 W/m 0,0 km/h (0 Bft) 100,00 %
12.06.2019 00:56 16,5 C 15,0 C 14,4 C 75 % 1010,5 hPa 0,0 l/m 0 min 0 min 0 W/m 0,0 km/h (0 Bft) 97,87 %
12.06.2019 00:58 16,4 C 15,6 C 14,4 C 75 % 1010,5 hPa 0,0 l/m 0 min 0 min 0 W/m 6,4 km/h (2 Bft) 100,00 %
12.06.2019 01:00 16,4 C 15,6 C 15,0 C 75 % 1010,5 hPa 0,0 l/m 0 min 0 min 0 W/m 3,2 km/h (1 Bft) 95,74 %
12.06.2019 01:02 16,4 C 15,6 C 15,0 C 75 % 1010,6 hPa 0,0 l/m 0 min 0 min 0 W/m 6,4 km/h (2 Bft) 97,87 %
12.06.2019 01:04 16,4 C 15,6 C 15,0 C 75 % 1010,6 hPa 0,0 l/m 0 min 0 min 0 W/m 3,2 km/h (1 Bft) 97,87 %
12.06.2019 01:06 16,4 C 15,6 C 15,0 C 75 % 1010,6 hPa 0,0 l/m 0 min 0 min 0 W/m 3,2 km/h (1 Bft) 97,83 %
12.06.2019 01:08 16,4 C 15,6 C 15,0 C 75 % 1010,7 hPa 0,0 l/m 0 min 0 min 0 W/m 3,2 km/h (1 Bft) 97,87 %
12.06.2019 01:10 16,4 C 15,6 C 15,0 C 75 % 1010,6 hPa 0,0 l/m 0 min 0 min 0 W/m 3,2 km/h (1 Bft) 95,74 %
12.06.2019 01:12 16,4 C 15,6 C 15,0 C 75 % 1010,7 hPa 0,0 l/m 0 min 0 min 0 W/m 6,4 km/h (2 Bft) 95,74 %
12.06.2019 01:14 16,4 C 15,6 C 15,0 C 76 % 1010,8 hPa 0,0 l/m 0 min 0 min 0 W/m 6,4 km/h (2 Bft) 97,87 %
12.06.2019 01:16 16,4 C 15,6 C 15,0 C 76 % 1010,7 hPa 0,0 l/m 0 min 0 min 0 W/m 3,2 km/h (1 Bft) 97,87 %
12.06.2019 01:18 16,4 C 15,6 C 15,0 C 75 % 1010,8 hPa 0,0 l/m 0 min 0 min 0 W/m 9,7 km/h (2 Bft) 97,87 %
12.06.2019 01:20 16,4 C 15,6 C 15,0 C 75 % 1010,9 hPa 0,0 l/m 0 min 0 min 0 W/m 6,4 km/h (2 Bft) 93,48 %
12.06.2019 01:22 16,4 C 15,6 C 15,0 C 75 % 1011,0 hPa 0,0 l/m 0 min 0 min 0 W/m 6,4 km/h (2 Bft) 93,62 %
12.06.2019 01:24 16,4 C 15,6 C 15,0 C 76 % 1011,0 hPa 0,0 l/m 0 min 0 min 0 W/m 3,2 km/h (1 Bft) 93,62 %
12.06.2019 01:26 16,4 C 15,6 C 15,0 C 76 % 1011,1 hPa 0,0 l/m 0 min 0 min 0 W/m 6,4 km/h (2 Bft) 93,62 %
12.06.2019 01:28 16,4 C 15,6 C 15,0 C 76 % 1011,1 hPa 0,0 l/m 0 min 0 min 0 W/m 3,2 km/h (1 Bft) 91,49 %
12.06.2019 01:30 16,4 C 15,6 C 15,0 C 76 % 1011,0 hPa 0,0 l/m 0 min 0 min 0 W/m 3,2 km/h (1 Bft) 93,48 %
12.06.2019 01:32 16,4 C 15,6 C 15,0 C 76 % 1010,9 hPa 0,0 l/m 0 min 0 min 0 W/m 6,4 km/h (2 Bft) 91,49 %
12.06.2019 01:34 16,4 C 15,6 C 15,0 C 76 % 1010,9 hPa 0,0 l/m 0 min 0 min 0 W/m 3,2 km/h (1 Bft) 93,62 %
12.06.2019 01:36 16,4 C 15,6 C 15,0 C 76 % 1010,8 hPa 0,0 l/m 0 min 0 min 0 W/m 3,2 km/h (1 Bft) 95,74 %
12.06.2019 01:38 16,4 C 15,6 C 15,0 C 76 % 1010,8 hPa 0,0 l/m 0 min 0 min 0 W/m 6,4 km/h (2 Bft) 93,62 %
12.06.2019 01:40 16,4 C 15,6 C 15,0 C 76 % 1010,8 hPa 0,0 l/m 0 min 0 min 0 W/m 6,4 km/h (2 Bft) 93,62 %
12.06.2019 01:42 16,4 C 15,6 C 15,0 C 76 % 1010,9 hPa 0,0 l/m 0 min 0 min 0 W/m 6,4 km/h (2 Bft) 93,48 %
12.06.2019 01:44 16,4 C 15,6 C 15,0 C 75 % 1010,8 hPa 0,0 l/m 0 min 0 min 0 W/m 3,2 km/h (1 Bft) 93,62 %
12.06.2019 01:46 16,4 C 15,6 C 15,0 C 75 % 1010,8 hPa 0,0 l/m 0 min 0 min 0 W/m 6,4 km/h (2 Bft) 93,62 %
12.06.2019 01:48 16,4 C 15,6 C 15,0 C 75 % 1010,8 hPa 0,0 l/m 0 min 0 min 0 W/m 6,4 km/h (2 Bft) 91,49 %
12.06.2019 01:50 16,4 C 15,6 C 15,0 C 75 % 1010,7 hPa 0,0 l/m 0 min 0 min 0 W/m 6,4 km/h (2 Bft) 93,62 %
12.06.2019 01:52 16,4 C 15,6 C 15,0 C 75 % 1010,7 hPa 0,0 l/m 0 min 0 min 0 W/m 3,2 km/h (1 Bft) 93,48 %
12.06.2019 01:54 16,4 C 15,6 C 15,0 C 75 % 1010,7 hPa 0,0 l/m 0 min 0 min 0 W/m 6,4 km/h (2 Bft) 91,49 %
12.06.2019 01:56 16,4 C 15,6 C 15,0 C 75 % 1010,7 hPa 0,0 l/m 0 min 0 min 0 W/m 6,4 km/h (2 Bft) 93,62 %
12.06.2019 01:58 16,4 C 15,6 C 15,0 C 75 % 1010,6 hPa 0,0 l/m 0 min 0 min 0 W/m 3,2 km/h (1 Bft) 93,62 %
12.06.2019 02:00 16,4 C 15,6 C 15,0 C 75 % 1010,7 hPa 0,0 l/m 0 min 0 min 0 W/m 6,4 km/h (2 Bft) 93,62 %
12.06.2019 02:02 16,4 C 15,6 C 15,0 C 75 % 1010,6 hPa 0,0 l/m 0 min 0 min 0 W/m 6,4 km/h (2 Bft) 91,49 %
12.06.2019 02:04 16,4 C 15,6 C 15,0 C 75 % 1010,6 hPa 0,0 l/m 0 min 0 min 0 W/m 3,2 km/h (1 Bft) 97,83 %
12.06.2019 02:06 16,4 C 15,6 C 15,0 C 75 % 1010,5 hPa 0,0 l/m 0 min 0 min 0 W/m 3,2 km/h (1 Bft) 95,74 %
12.06.2019 02:08 16,4 C 15,6 C 15,0 C 75 % 1010,5 hPa 0,0 l/m 0 min 0 min 0 W/m 6,4 km/h (2 Bft) 97,87 %
12.06.2019 02:10 16,4 C 15,6 C 15,0 C 75 % 1010,4 hPa 0,0 l/m 0 min 0 min 0 W/m 3,2 km/h (1 Bft) 95,74 %
12.06.2019 02:12 16,4 C 15,6 C 15,0 C 75 % 1010,4 hPa 0,0 l/m 0 min 0 min 0 W/m 9,7 km/h (2 Bft) 97,87 %
12.06.2019 02:14 16,4 C 15,6 C 15,0 C 75 % 1010,5 hPa 0,0 l/m 0 min 0 min 0 W/m 6,4 km/h (2 Bft) 100,00 %
12.06.2019 02:16 16,4 C 15,6 C 15,0 C 75 % 1010,6 hPa 0,0 l/m 0 min 0 min 0 W/m 3,2 km/h (1 Bft) 97,83 %
12.06.2019 02:18 16,4 C 15,6 C 15,0 C 75 % 1010,6 hPa 0,0 l/m 0 min 0 min 0 W/m 6,4 km/h (2 Bft) 100,00 %
12.06.2019 02:20 16,4 C 15,6 C 15,0 C 75 % 1010,5 hPa 0,0 l/m 0 min 0 min 0 W/m 3,2 km/h (1 Bft) 95,74 %
12.06.2019 02:22 16,4 C 15,6 C 15,0 C 75 % 1010,6 hPa 0,0 l/m 0 min 0 min 0 W/m 6,4 km/h (2 Bft) 97,87 %
12.06.2019 02:24 16,4 C 15,6 C 15,0 C 75 % 1010,5 hPa 0,0 l/m 0 min 0 min 0 W/m 6,4 km/h (2 Bft) 97,87 %
12.06.2019 02:26 16,4 C 15,6 C 15,0 C 75 % 1010,6 hPa 0,0 l/m 0 min 0 min 0 W/m 3,2 km/h (1 Bft) 100,00 %
12.06.2019 02:28 16,4 C 15,6 C 15,0 C 75 % 1010,6 hPa 0,0 l/m 0 min 0 min 0 W/m 9,7 km/h (2 Bft) 100,00 %
12.06.2019 02:30 16,4 C 15,6 C 15,0 C 75 % 1010,7 hPa 0,0 l/m 0 min 0 min 0 W/m 0,0 km/h (0 Bft) 100,00 %
12.06.2019 02:32 16,4 C 15,6 C 15,0 C 76 % 1010,6 hPa 0,0 l/m 0 min 0 min 0 W/m 3,2 km/h (1 Bft) 100,00 %
12.06.2019 02:34 16,4 C 15,6 C 15,0 C 75 % 1010,6 hPa 0,0 l/m 0 min 0 min 0 W/m 3,2 km/h (1 Bft) 100,00 %
12.06.2019 02:36 16,4 C 15,6 C 15,0 C 76 % 1010,6 hPa 0,0 l/m 0 min 0 min 0 W/m 3,2 km/h (1 Bft) 100,00 %
12.06.2019 02:38 16,3 C 15,6 C 15,0 C 76 % 1010,6 hPa 0,0 l/m 0 min 0 min 0 W/m 3,2 km/h (1 Bft) 100,00 %
12.06.2019 02:40 16,3 C 15,6 C 15,0 C 76 % 1010,5 hPa 0,0 l/m 0 min 0 min 0 W/m 0,0 km/h (0 Bft) 100,00 %
12.06.2019 02:42 16,3 C 15,6 C 15,0 C 76 % 1010,4 hPa 0,0 l/m 0 min 0 min 0 W/m 3,2 km/h (1 Bft) 97,87 %
12.06.2019 02:44 16,3 C 15,6 C 15,0 C 76 % 1010,4 hPa 0,0 l/m 0 min 0 min 0 W/m 3,2 km/h (1 Bft) 100,00 %
12.06.2019 02:46 16,3 C 15,6 C 15,0 C 76 % 1010,4 hPa 0,0 l/m 0 min 0 min 0 W/m 3,2 km/h (1 Bft) 100,00 %
12.06.2019 02:48 16,3 C 15,6 C 15,0 C 76 % 1010,4 hPa 0,0 l/m 0 min 0 min 0 W/m 3,2 km/h (1 Bft) 97,87 %
12.06.2019 02:50 16,3 C 15,6 C 15,0 C 76 % 1010,4 hPa 0,0 l/m 0 min 0 min 0 W/m 3,2 km/h (1 Bft) 100,00 %
12.06.2019 02:52 16,3 C 15,6 C 15,0 C 76 % 1010,4 hPa 0,0 l/m 0 min 0 min 0 W/m 3,2 km/h (1 Bft) 100,00 %
12.06.2019 02:54 16,3 C 15,6 C 15,0 C 76 % 1010,4 hPa 0,0 l/m 0 min 0 min 0 W/m 3,2 km/h (1 Bft) 100,00 %
12.06.2019 02:56 16,3 C 15,6 C 15,0 C 76 % 1010,4 hPa 0,0 l/m 0 min 0 min 0 W/m 6,4 km/h (2 Bft) 100,00 %
12.06.2019 02:58 16,3 C 15,6 C 15,0 C 76 % 1010,4 hPa 0,0 l/m 0 min 0 min 0 W/m 3,2 km/h (1 Bft) 100,00 %
12.06.2019 03:00 16,3 C 15,6 C 15,0 C 76 % 1010,4 hPa 0,0 l/m 0 min 0 min 0 W/m 6,4 km/h (2 Bft) 100,00 %
12.06.2019 03:02 16,3 C 15,6 C 15,0 C 76 % 1010,4 hPa 0,0 l/m 0 min 0 min 0 W/m 6,4 km/h (2 Bft) 97,83 %
12.06.2019 03:04 16,3 C 15,6 C 15,0 C 77 % 1010,4 hPa 0,0 l/m 0 min 0 min 0 W/m 6,4 km/h (2 Bft) 100,00 %
12.06.2019 03:06 16,3 C 15,6 C 15,0 C 77 % 1010,3 hPa 0,0 l/m 0 min 0 min 0 W/m 3,2 km/h (1 Bft) 100,00 %
12.06.2019 03:08 16,3 C 15,6 C 15,0 C 77 % 1010,3 hPa 0,0 l/m 0 min 0 min 0 W/m 3,2 km/h (1 Bft) 100,00 %
12.06.2019 03:10 16,3 C 15,6 C 15,0 C 77 % 1010,3 hPa 0,0 l/m 0 min 0 min 0 W/m 3,2 km/h (1 Bft) 100,00 %
12.06.2019 03:12 16,3 C 15,6 C 15,0 C 77 % 1010,2 hPa 0,0 l/m 0 min 0 min 0 W/m 3,2 km/h (1 Bft) 100,00 %
12.06.2019 03:14 16,2 C 15,6 C 15,0 C 77 % 1010,3 hPa 0,0 l/m 0 min 0 min 0 W/m 3,2 km/h (1 Bft) 100,00 %
12.06.2019 03:16 16,3 C 15,6 C 15,0 C 77 % 1010,3 hPa 0,0 l/m 0 min 0 min 0 W/m 6,4 km/h (2 Bft) 100,00 %
12.06.2019 03:18 16,3 C 15,6 C 15,0 C 77 % 1010,3 hPa 0,0 l/m 0 min 0 min 0 W/m 6,4 km/h (2 Bft) 100,00 %
12.06.2019 03:20 16,3 C 15,6 C 15,0 C 78 % 1010,3 hPa 0,0 l/m 0 min 0 min 0 W/m 3,2 km/h (1 Bft) 100,00 %
12.06.2019 03:22 16,2 C 15,6 C 15,0 C 78 % 1010,2 hPa 0,0 l/m 0 min 0 min 0 W/m 3,2 km/h (1 Bft) 100,00 %
12.06.2019 03:24 16,2 C 15,6 C 15,0 C 78 % 1010,2 hPa 0,0 l/m 0 min 0 min 0 W/m 6,4 km/h (2 Bft) 100,00 %
12.06.2019 03:26 16,2 C 15,6 C 15,0 C 78 % 1010,2 hPa 0,0 l/m 0 min 0 min 0 W/m 6,4 km/h (2 Bft) 100,00 %
12.06.2019 03:28 16,2 C 15,6 C 15,0 C 78 % 1010,2 hPa 0,0 l/m 0 min 0 min 0 W/m 3,2 km/h (1 Bft) 100,00 %
12.06.2019 03:30 16,2 C 15,6 C 15,0 C 78 % 1010,1 hPa 0,0 l/m 0 min 0 min 0 W/m 3,2 km/h (1 Bft) 100,00 %
12.06.2019 03:32 16,2 C 15,6 C 15,0 C 78 % 1010,2 hPa 0,0 l/m 0 min 0 min 0 W/m 6,4 km/h (2 Bft) 100,00 %
12.06.2019 03:34 16,2 C 15,6 C 15,0 C 78 % 1010,2 hPa 0,0 l/m 0 min 0 min 0 W/m 3,2 km/h (1 Bft) 100,00 %
12.06.2019 03:36 16,2 C 15,0 C 15,0 C 78 % 1010,1 hPa 0,0 l/m 0 min 0 min 0 W/m 0,0 km/h (0 Bft) 100,00 %
12.06.2019 03:38 16,2 C 15,0 C 15,0 C 78 % 1010,1 hPa 0,0 l/m 0 min 0 min 0 W/m 3,2 km/h (1 Bft) 97,83 %
12.06.2019 03:40 16,2 C 15,0 C 15,0 C 78 % 1010,2 hPa 0,0 l/m 0 min 0 min 0 W/m 3,2 km/h (1 Bft) 97,87 %
12.06.2019 03:42 16,2 C 15,0 C 15,0 C 78 % 1010,2 hPa 0,0 l/m 0 min 0 min 0 W/m 6,4 km/h (2 Bft) 97,87 %
12.06.2019 03:44 16,2 C 15,0 C 15,0 C 78 % 1010,1 hPa 0,0 l/m 0 min 0 min 0 W/m 6,4 km/h (2 Bft) 100,00 %
12.06.2019 03:46 16,2 C 15,0 C 15,0 C 79 % 1010,1 hPa 0,0 l/m 0 min 0 min 0 W/m 0,0 km/h (0 Bft) 93,62 %
12.06.2019 03:48 16,2 C 15,0 C 14,4 C 79 % 1010,0 hPa 0,0 l/m 0 min 0 min 0 W/m 3,2 km/h (1 Bft) 95,74 %
12.06.2019 03:50 16,2 C 15,0 C 14,4 C 79 % 1010,0 hPa 0,0 l/m 0 min 0 min 0 W/m 6,4 km/h (2 Bft) 97,83 %
12.06.2019 03:52 16,2 C 14,4 C 14,4 C 79 % 1009,9 hPa 0,0 l/m 0 min 2 min 0 W/m 3,2 km/h (1 Bft) 100,00 %
12.06.2019 03:54 16,2 C 14,4 C 13,9 C 80 % 1009,9 hPa 0,0 l/m 0 min 2 min 0 W/m 3,2 km/h (1 Bft) 97,87 %
12.06.2019 03:56 16,2 C 13,9 C 13,9 C 80 % 1009,7 hPa 0,0 l/m 0 min 2 min 0 W/m 6,4 km/h (2 Bft) 97,87 %
12.06.2019 03:58 16,2 C 13,9 C 13,9 C 80 % 1009,5 hPa 0,0 l/m 0 min 0 min 0 W/m 6,4 km/h (2 Bft) 97,87 %
12.06.2019 04:00 16,2 C 13,9 C 13,9 C 81 % 1009,4 hPa 0,0 l/m 0 min 2 min 0 W/m 6,4 km/h (2 Bft) 100,00 %
12.06.2019 04:02 16,2 C 13,9 C 13,9 C 82 % 1009,3 hPa 0,0 l/m 0 min 2 min 0 W/m 3,2 km/h (1 Bft) 100,00 %
12.06.2019 04:04 16,1 C 13,9 C 13,9 C 82 % 1009,3 hPa 0,0 l/m 0 min 2 min 0 W/m 3,2 km/h (1 Bft) 97,87 %
12.06.2019 04:06 16,1 C 13,9 C 13,3 C 82 % 1009,4 hPa 0,0 l/m 0 min 0 min 0 W/m 6,4 km/h (2 Bft) 93,62 %
12.06.2019 04:08 16,1 C 13,9 C 13,3 C 82 % 1009,3 hPa 0,0 l/m 0 min 0 min 0 W/m 6,4 km/h (2 Bft) 95,74 %
12.06.2019 04:10 16,1 C 13,9 C 13,3 C 83 % 1009,4 hPa 0,0 l/m 0 min 0 min 0 W/m 6,4 km/h (2 Bft) 95,74 %
12.06.2019 04:12 16,1 C 13,9 C 13,9 C 83 % 1009,3 hPa 0,0 l/m 0 min 0 min 0 W/m 6,4 km/h (2 Bft) 95,74 %
12.06.2019 04:14 16,0 C 13,9 C 13,9 C 83 % 1009,4 hPa 0,0 l/m 0 min 0 min 0 W/m 6,4 km/h (2 Bft) 91,30 %
12.06.2019 04:16 15,9 C 14,4 C 13,9 C 83 % 1009,5 hPa 0,0 l/m 0 min 0 min 0 W/m 6,4 km/h (2 Bft) 95,74 %
12.06.2019 04:18 15,9 C 14,4 C 13,9 C 83 % 1009,4 hPa 0,0 l/m 0 min 0 min 0 W/m 6,4 km/h (2 Bft) 93,62 %
12.06.2019 04:20 15,9 C 14,4 C 13,9 C 83 % 1009,4 hPa 0,0 l/m 0 min 0 min 0 W/m 3,2 km/h (1 Bft) 93,62 %
12.06.2019 04:22 15,9 C 14,4 C 13,9 C 83 % 1009,4 hPa 0,0 l/m 0 min 0 min 0 W/m 0,0 km/h (0 Bft) 91,49 %
12.06.2019 04:24 15,8 C 14,4 C 13,9 C 83 % 1009,5 hPa 0,0 l/m 0 min 0 min 0 W/m 0,0 km/h (0 Bft) 93,62 %
12.06.2019 04:26 15,8 C 14,4 C 13,9 C 83 % 1009,4 hPa 0,0 l/m 0 min 0 min 0 W/m 0,0 km/h (0 Bft) 93,48 %
12.06.2019 04:28 15,8 C 14,4 C 13,9 C 83 % 1009,4 hPa 0,0 l/m 0 min 0 min 0 W/m 6,4 km/h (2 Bft) 93,62 %
12.06.2019 04:30 15,8 C 14,4 C 13,9 C 83 % 1009,5 hPa 0,0 l/m 0 min 0 min 0 W/m 0,0 km/h (0 Bft) 95,74 %
12.06.2019 04:32 15,8 C 14,4 C 13,9 C 83 % 1009,5 hPa 0,0 l/m 0 min 0 min 0 W/m 3,2 km/h (1 Bft) 97,87 %
12.06.2019 04:34 15,7 C 14,4 C 13,9 C 83 % 1009,5 hPa 0,0 l/m 0 min 0 min 0 W/m 6,4 km/h (2 Bft) 97,87 %
12.06.2019 04:36 15,7 C 14,4 C 13,9 C 83 % 1009,4 hPa 0,0 l/m 0 min 0 min 0 W/m 3,2 km/h (1 Bft) 95,92 %
12.06.2019 04:38 15,7 C 14,4 C 13,9 C 83 % 1009,4 hPa 0,0 l/m 0 min 0 min 0 W/m 3,2 km/h (1 Bft) 95,74 %
12.06.2019 04:40 15,7 C 14,4 C 14,4 C 83 % 1009,4 hPa 0,0 l/m 0 min 0 min 0 W/m 3,2 km/h (1 Bft) 89,58 %
12.06.2019 04:42 15,6 C 15,0 C 14,4 C 83 % 1009,4 hPa 0,0 l/m 0 min 0 min 0 W/m 6,4 km/h (2 Bft) 91,49 %
12.06.2019 04:44 15,6 C 15,0 C 14,4 C 83 % 1009,4 hPa 0,0 l/m 0 min 0 min 0 W/m 9,7 km/h (2 Bft) 93,48 %
12.06.2019 04:46 15,6 C 15,0 C 14,4 C 83 % 1009,4 hPa 0,0 l/m 0 min 0 min 0 W/m 6,4 km/h (2 Bft) 93,62 %
12.06.2019 04:48 15,6 C 15,0 C 14,4 C 83 % 1009,4 hPa 0,0 l/m 0 min 0 min 0 W/m 3,2 km/h (1 Bft) 95,74 %
12.06.2019 04:50 15,6 C 15,0 C 14,4 C 83 % 1009,4 hPa 0,0 l/m 0 min 0 min 0 W/m 3,2 km/h (1 Bft) 95,74 %
12.06.2019 04:52 15,6 C 15,0 C 14,4 C 83 % 1009,3 hPa 0,0 l/m 0 min 0 min 0 W/m 3,2 km/h (1 Bft) 93,62 %
12.06.2019 04:54 15,6 C 15,0 C 14,4 C 84 % 1009,3 hPa 0,0 l/m 0 min 0 min 0 W/m 6,4 km/h (2 Bft) 95,74 %
12.06.2019 04:56 15,6 C 15,0 C 14,4 C 84 % 1009,3 hPa 0,0 l/m 0 min 0 min 0 W/m 3,2 km/h (1 Bft) 97,83 %
12.06.2019 04:58 15,6 C 15,0 C 14,4 C 84 % 1009,3 hPa 0,0 l/m 0 min 0 min 0 W/m 6,4 km/h (2 Bft) 97,87 %
12.06.2019 05:00 15,6 C 15,0 C 14,4 C 84 % 1009,2 hPa 0,0 l/m 0 min 0 min 0 W/m 6,4 km/h (2 Bft) 95,74 %
12.06.2019 05:02 15,6 C 15,0 C 14,4 C 84 % 1009,3 hPa 0,0 l/m 0 min 0 min 0 W/m 0,0 km/h (0 Bft) 97,92 %
12.06.2019 05:04 15,6 C 15,0 C 14,4 C 84 % 1009,3 hPa 0,0 l/m 0 min 0 min 0 W/m 3,2 km/h (1 Bft) 97,87 %
12.06.2019 05:05 15,6 C 15,0 C 14,4 C 84 % 1009,3 hPa 0,0 l/m 0 min 0 min 0 W/m 6,4 km/h (2 Bft) 100,00 %
12.06.2019 05:10 15,6 C 15,0 C 14,4 C 84 % 1009,3 hPa 0,0 l/m 0 min 0 min 0 W/m 6,4 km/h (2 Bft) 99,12 %
12.06.2019 05:12 15,6 C 15,0 C 14,4 C 84 % 1009,3 hPa 0,0 l/m 0 min 0 min 0 W/m 6,4 km/h (2 Bft) 100,00 %
12.06.2019 05:14 15,6 C 15,0 C 14,4 C 84 % 1009,2 hPa 0,0 l/m 0 min 0 min 0 W/m 0,0 km/h (0 Bft) 97,87 %
12.06.2019 05:19 15,6 C 15,0 C 14,4 C 84 % 1008,9 hPa 0,0 l/m 0 min 0 min 0 W/m 0,0 km/h (0 Bft) 95,74 %
12.06.2019 05:20 15,6 C 15,0 C 14,4 C 84 % 1008,9 hPa 0,0 l/m 0 min 0 min 0 W/m 0,0 km/h (0 Bft) 100,00 %
12.06.2019 05:22 15,6 C 15,0 C 14,4 C 84 % 1008,9 hPa 0,0 l/m 0 min 0 min 0 W/m 0,0 km/h (0 Bft) 97,83 %
12.06.2019 05:24 15,6 C 15,0 C 14,4 C 84 % 1008,9 hPa 0,0 l/m 0 min 0 min 0 W/m 3,2 km/h (1 Bft) 97,87 %
12.06.2019 05:26 15,6 C 15,0 C 14,4 C 84 % 1008,9 hPa 0,0 l/m 0 min 0 min 0 W/m 0,0 km/h (0 Bft) 95,74 %
12.06.2019 05:28 15,6 C 15,0 C 14,4 C 84 % 1008,8 hPa 0,0 l/m 0 min 0 min 0 W/m 0,0 km/h (0 Bft) 97,87 %
12.06.2019 05:30 15,6 C 15,0 C 14,4 C 84 % 1008,7 hPa 0,0 l/m 0 min 0 min 0 W/m 3,2 km/h (1 Bft) 97,87 %
12.06.2019 05:32 15,6 C 15,0 C 14,4 C 84 % 1008,7 hPa 0,0 l/m 0 min 0 min 0 W/m 0,0 km/h (0 Bft) 97,87 %
12.06.2019 05:34 15,6 C 15,0 C 14,4 C 84 % 1008,7 hPa 0,0 l/m 0 min 0 min 0 W/m 3,2 km/h (1 Bft) 95,65 %
12.06.2019 05:36 15,6 C 15,0 C 14,4 C 84 % 1008,5 hPa 0,0 l/m 0 min 0 min 3 W/m 0,0 km/h (0 Bft) 97,87 %
12.06.2019 05:38 15,6 C 15,0 C 14,4 C 84 % 1008,5 hPa 0,0 l/m 0 min 0 min 5 W/m 0,0 km/h (0 Bft) 97,87 %
12.06.2019 05:40 15,7 C 15,0 C 14,4 C 84 % 1008,4 hPa 0,0 l/m 0 min 0 min 5 W/m 6,4 km/h (2 Bft) 93,62 %
12.06.2019 05:42 15,6 C 15,0 C 14,4 C 84 % 1008,5 hPa 0,0 l/m 0 min 0 min 6 W/m 3,2 km/h (1 Bft) 100,00 %
12.06.2019 05:44 15,6 C 15,0 C 14,4 C 84 % 1008,6 hPa 0,0 l/m 0 min 0 min 8 W/m 3,2 km/h (1 Bft) 97,87 %
12.06.2019 05:46 15,6 C 15,0 C 14,4 C 84 % 1008,6 hPa 0,0 l/m 0 min 0 min 10 W/m 3,2 km/h (1 Bft) 100,00 %
12.06.2019 05:48 15,6 C 15,0 C 14,4 C 84 % 1008,7 hPa 0,0 l/m 0 min 0 min 12 W/m 0,0 km/h (0 Bft) 100,00 %
12.06.2019 05:50 15,7 C 15,0 C 14,4 C 84 % 1008,7 hPa 0,0 l/m 0 min 0 min 14 W/m 0,0 km/h (0 Bft) 100,00 %
12.06.2019 05:52 15,6 C 15,0 C 14,4 C 84 % 1008,6 hPa 0,0 l/m 0 min 0 min 16 W/m 0,0 km/h (0 Bft) 100,00 %
12.06.2019 05:54 15,6 C 15,0 C 14,4 C 84 % 1008,7 hPa 0,0 l/m 0 min 0 min 16 W/m 0,0 km/h (0 Bft) 97,87 %
12.06.2019 05:56 15,6 C 15,0 C 14,4 C 84 % 1008,8 hPa 0,0 l/m 0 min 0 min 16 W/m 0,0 km/h (0 Bft) 100,00 %
12.06.2019 05:58 15,6 C 15,0 C 14,4 C 84 % 1008,7 hPa 0,0 l/m 0 min 0 min 14 W/m 0,0 km/h (0 Bft) 100,00 %
12.06.2019 06:00 15,6 C 15,0 C 14,4 C 84 % 1008,7 hPa 0,0 l/m 0 min 0 min 14 W/m 0,0 km/h (0 Bft) 97,87 %
12.06.2019 06:02 15,6 C 15,0 C 14,4 C 84 % 1008,6 hPa 0,0 l/m 0 min 0 min 11 W/m 0,0 km/h (0 Bft) 100,00 %
12.06.2019 06:04 15,6 C 15,0 C 14,4 C 84 % 1008,6 hPa 0,0 l/m 0 min 0 min 9 W/m 3,2 km/h (1 Bft) 97,87 %
12.06.2019 06:07 15,7 C 15,0 C 14,4 C 84 % 1008,6 hPa 0,0 l/m 0 min 0 min 9 W/m 0,0 km/h (0 Bft) 98,57 %
12.06.2019 06:08 15,6 C 15,0 C 14,4 C 84 % 1008,6 hPa 0,0 l/m 0 min 0 min 9 W/m 0,0 km/h (0 Bft) 100,00 %
12.06.2019 06:10 15,6 C 15,0 C 14,4 C 84 % 1008,6 hPa 0,0 l/m 0 min 0 min 9 W/m 0,0 km/h (0 Bft) 100,00 %
12.06.2019 06:12 15,6 C 15,0 C 14,4 C 84 % 1008,7 hPa 0,0 l/m 0 min 0 min 9 W/m 0,0 km/h (0 Bft) 100,00 %
12.06.2019 06:14 15,7 C 15,0 C 14,4 C 84 % 1008,6 hPa 0,0 l/m 0 min 0 min 9 W/m 0,0 km/h (0 Bft) 100,00 %
12.06.2019 06:16 15,7 C 15,0 C 14,4 C 84 % 1008,6 hPa 0,0 l/m 0 min 0 min 9 W/m 0,0 km/h (0 Bft) 100,00 %
12.06.2019 06:18 15,7 C 15,0 C 14,4 C 84 % 1008,6 hPa 0,0 l/m 0 min 0 min 11 W/m 0,0 km/h (0 Bft) 97,87 %
12.06.2019 06:20 15,7 C 15,0 C 14,4 C 84 % 1008,5 hPa 0,0 l/m 0 min 0 min 14 W/m 0,0 km/h (0 Bft) 100,00 %
12.06.2019 06:22 15,7 C 15,0 C 14,4 C 84 % 1008,4 hPa 0,0 l/m 0 min 0 min 14 W/m 0,0 km/h (0 Bft) 100,00 %
12.06.2019 06:24 15,7 C 15,0 C 14,4 C 85 % 1008,4 hPa 0,0 l/m 0 min 0 min 16 W/m 0,0 km/h (0 Bft) 100,00 %
12.06.2019 06:26 15,7 C 15,0 C 14,4 C 85 % 1008,3 hPa 0,0 l/m 0 min 0 min 18 W/m 0,0 km/h (0 Bft) 100,00 %
12.06.2019 06:28 15,7 C 15,0 C 14,4 C 85 % 1008,3 hPa 0,0 l/m 0 min 0 min 19 W/m 0,0 km/h (0 Bft) 97,87 %
12.06.2019 06:30 15,7 C 15,0 C 14,4 C 85 % 1008,3 hPa 0,0 l/m 0 min 0 min 20 W/m 0,0 km/h (0 Bft) 100,00 %
12.06.2019 06:32 15,7 C 15,0 C 14,4 C 85 % 1008,3 hPa 0,0 l/m 0 min 0 min 23 W/m 0,0 km/h (0 Bft) 97,87 %
12.06.2019 06:34 15,7 C 15,0 C 14,4 C 85 % 1008,3 hPa 0,0 l/m 0 min 2 min 26 W/m 0,0 km/h (0 Bft) 97,87 %
12.06.2019 06:36 15,7 C 15,0 C 14,4 C 85 % 1008,1 hPa 0,0 l/m 0 min 0 min 29 W/m 0,0 km/h (0 Bft) 98,28 %
12.06.2019 06:38 15,7 C 15,0 C 14,4 C 85 % 1008,2 hPa 0,0 l/m 0 min 0 min 32 W/m 0,0 km/h (0 Bft) 100,00 %
12.06.2019 06:40 15,7 C 15,0 C 14,4 C 85 % 1008,2 hPa 0,0 l/m 0 min 0 min 35 W/m 0,0 km/h (0 Bft) 100,00 %
12.06.2019 06:42 15,7 C 15,0 C 13,9 C 85 % 1008,1 hPa 0,0 l/m 0 min 2 min 40 W/m 0,0 km/h (0 Bft) 97,87 %
12.06.2019 06:44 15,7 C 14,4 C 13,9 C 85 % 1008,1 hPa 0,0 l/m 0 min 2 min 45 W/m 0,0 km/h (0 Bft) 97,87 %
12.06.2019 06:46 15,7 C 14,4 C 13,9 C 85 % 1008,1 hPa 0,0 l/m 0 min 2 min 44 W/m 0,0 km/h (0 Bft) 100,00 %
12.06.2019 06:48 15,7 C 14,4 C 13,9 C 85 % 1008,1 hPa 0,0 l/m 0 min 0 min 43 W/m 0,0 km/h (0 Bft) 97,83 %
12.06.2019 06:50 15,7 C 14,4 C 13,9 C 86 % 1008,1 hPa 0,0 l/m 0 min 0 min 43 W/m 0,0 km/h (0 Bft) 97,87 %
12.06.2019 06:52 15,7 C 14,4 C 13,9 C 86 % 1007,9 hPa 0,0 l/m 0 min 0 min 47 W/m 0,0 km/h (0 Bft) 95,74 %
12.06.2019 06:54 15,7 C 14,4 C 13,9 C 86 % 1008,0 hPa 0,0 l/m 0 min 0 min 48 W/m 0,0 km/h (0 Bft) 95,74 %
12.06.2019 06:56 15,7 C 14,4 C 13,9 C 86 % 1007,9 hPa 0,0 l/m 0 min 0 min 42 W/m 0,0 km/h (0 Bft) 97,87 %
12.06.2019 06:58 15,7 C 14,4 C 13,9 C 86 % 1007,9 hPa 0,0 l/m 0 min 0 min 43 W/m 0,0 km/h (0 Bft) 95,65 %
12.06.2019 07:00 15,7 C 14,4 C 13,9 C 86 % 1007,7 hPa 0,0 l/m 0 min 0 min 43 W/m 0,0 km/h (0 Bft) 95,74 %
12.06.2019 07:02 15,7 C 14,4 C 13,9 C 86 % 1007,8 hPa 0,0 l/m 0 min 0 min 37 W/m 3,2 km/h (1 Bft) 95,74 %
12.06.2019 07:04 15,7 C 14,4 C 13,9 C 86 % 1007,9 hPa 0,0 l/m 0 min 0 min 40 W/m 0,0 km/h (0 Bft) 93,62 %
12.06.2019 07:06 15,7 C 14,4 C 13,9 C 86 % 1007,7 hPa 0,0 l/m 0 min 0 min 44 W/m 3,2 km/h (1 Bft) 93,22 %
12.06.2019 07:08 15,7 C 15,0 C 13,9 C 86 % 1007,7 hPa 0,0 l/m 0 min 0 min 52 W/m 3,2 km/h (1 Bft) 95,65 %
12.06.2019 07:10 15,7 C 15,0 C 13,9 C 86 % 1007,8 hPa 0,0 l/m 0 min 0 min 57 W/m 3,2 km/h (1 Bft) 94,29 %
12.06.2019 07:12 15,7 C 15,6 C 14,4 C 86 % 1007,8 hPa 0,0 l/m 0 min 0 min 67 W/m 3,2 km/h (1 Bft) 95,74 %
12.06.2019 07:14 15,7 C 15,6 C 14,4 C 87 % 1007,8 hPa 0,0 l/m 0 min 0 min 81 W/m 3,2 km/h (1 Bft) 95,74 %
12.06.2019 07:16 15,7 C 16,1 C 15,0 C 87 % 1007,9 hPa 0,0 l/m 0 min 0 min 86 W/m 6,4 km/h (2 Bft) 95,74 %
12.06.2019 07:18 15,8 C 16,1 C 15,0 C 87 % 1007,9 hPa 0,0 l/m 0 min 0 min 88 W/m 6,4 km/h (2 Bft) 95,74 %
12.06.2019 07:20 15,8 C 16,7 C 15,0 C 87 % 1007,8 hPa 0,0 l/m 0 min 0 min 79 W/m 0,0 km/h (0 Bft) 95,74 %
12.06.2019 07:22 15,8 C 16,7 C 15,0 C 87 % 1007,9 hPa 0,0 l/m 0 min 0 min 79 W/m 0,0 km/h (0 Bft) 93,48 %
12.06.2019 07:24 15,8 C 16,7 C 15,6 C 87 % 1007,8 hPa 0,0 l/m 0 min 0 min 92 W/m 0,0 km/h (0 Bft) 95,74 %
12.06.2019 07:26 15,8 C 17,2 C 15,6 C 87 % 1007,8 hPa 0,0 l/m 0 min 0 min 106 W/m 0,0 km/h (0 Bft) 95,74 %
12.06.2019 07:28 15,8 C 17,2 C 15,6 C 88 % 1007,9 hPa 0,0 l/m 0 min 0 min 102 W/m 3,2 km/h (1 Bft) 93,62 %
12.06.2019 07:30 15,9 C 16,7 C 15,6 C 88 % 1007,9 hPa 0,0 l/m 0 min 0 min 88 W/m 0,0 km/h (0 Bft) 95,74 %
12.06.2019 07:32 15,9 C 17,2 C 15,6 C 88 % 1007,9 hPa 0,0 l/m 0 min 0 min 93 W/m 3,2 km/h (1 Bft) 95,74 %
12.06.2019 07:34 15,9 C 17,2 C 16,1 C 88 % 1007,9 hPa 0,0 l/m 0 min 0 min 105 W/m 3,2 km/h (1 Bft) 97,83 %
12.06.2019 07:36 15,9 C 17,2 C 16,1 C 88 % 1007,9 hPa 0,0 l/m 0 min 0 min 109 W/m 3,2 km/h (1 Bft) 98,31 %
12.06.2019 07:38 15,9 C 17,8 C 16,1 C 88 % 1007,9 hPa 0,0 l/m 0 min 0 min 136 W/m 0,0 km/h (0 Bft) 100,00 %
12.06.2019 07:40 16,0 C 17,8 C 16,7 C 88 % 1007,9 hPa 0,0 l/m 0 min 0 min 166 W/m 6,4 km/h (2 Bft) 100,00 %
12.06.2019 07:42 16,1 C 18,3 C 16,7 C 88 % 1007,9 hPa 0,0 l/m 2 min 0 min 175 W/m 3,2 km/h (1 Bft) 97,87 %
12.06.2019 07:44 16,1 C 18,3 C 17,2 C 88 % 1007,9 hPa 0,0 l/m 0 min 0 min 150 W/m 0,0 km/h (0 Bft) 100,00 %
12.06.2019 07:46 16,1 C 18,3 C 17,2 C 88 % 1007,8 hPa 0,0 l/m 0 min 0 min 115 W/m 3,2 km/h (1 Bft) 97,83 %
12.06.2019 07:48 16,2 C 17,8 C 16,7 C 88 % 1007,9 hPa 0,0 l/m 0 min 0 min 110 W/m 3,2 km/h (1 Bft) 97,87 %
12.06.2019 07:50 16,2 C 17,8 C 16,7 C 88 % 1007,8 hPa 0,0 l/m 0 min 0 min 120 W/m 6,4 km/h (2 Bft) 100,00 %
12.06.2019 07:52 16,3 C 17,8 C 16,7 C 88 % 1007,8 hPa 0,0 l/m 0 min 0 min 127 W/m 3,2 km/h (1 Bft) 97,87 %
12.06.2019 07:54 16,3 C 17,8 C 16,7 C 88 % 1007,9 hPa 0,0 l/m 0 min 0 min 126 W/m 3,2 km/h (1 Bft) 100,00 %
12.06.2019 07:56 16,4 C 18,3 C 16,7 C 88 % 1007,9 hPa 0,0 l/m 0 min 0 min 134 W/m 3,2 km/h (1 Bft) 100,00 %
12.06.2019 07:58 16,4 C 18,9 C 16,7 C 88 % 1008,0 hPa 0,0 l/m 0 min 0 min 150 W/m 3,2 km/h (1 Bft) 100,00 %
12.06.2019 08:00 16,5 C 19,4 C 17,2 C 88 % 1007,9 hPa 0,0 l/m 0 min 0 min 169 W/m 3,2 km/h (1 Bft) 100,00 %
12.06.2019 08:02 16,6 C 19,4 C 17,2 C 88 % 1007,9 hPa 0,0 l/m 0 min 0 min 156 W/m 3,2 km/h (1 Bft) 100,00 %
12.06.2019 08:04 16,6 C 18,9 C 17,2 C 88 % 1007,9 hPa 0,0 l/m 0 min 0 min 129 W/m 6,4 km/h (2 Bft) 100,00 %
12.06.2019 08:06 16,7 C 18,9 C 17,2 C 88 % 1007,9 hPa 0,0 l/m 0 min 0 min 126 W/m 6,4 km/h (2 Bft) 98,28 %
12.06.2019 08:08 16,7 C 18,3 C 17,2 C 88 % 1007,8 hPa 0,0 l/m 0 min 0 min 127 W/m 6,4 km/h (2 Bft) 97,22 %
12.06.2019 08:10 16,8 C 18,3 C 17,2 C 87 % 1007,8 hPa 0,0 l/m 0 min 0 min 130 W/m 6,4 km/h (2 Bft) 97,83 %
12.06.2019 08:12 16,8 C 18,3 C 17,2 C 87 % 1007,8 hPa 0,0 l/m 0 min 0 min 139 W/m 3,2 km/h (1 Bft) 97,87 %
12.06.2019 08:14 16,9 C 18,9 C 17,2 C 87 % 1007,7 hPa 0,0 l/m 0 min 0 min 158 W/m 3,2 km/h (1 Bft) 97,87 %
12.06.2019 08:16 17,0 C 20,0 C 17,8 C 88 % 1007,5 hPa 0,0 l/m 0 min 0 min 180 W/m 6,4 km/h (2 Bft) 95,74 %
12.06.2019 08:18 17,1 C 21,1 C 17,8 C 88 % 1007,4 hPa 0,0 l/m 0 min 0 min 186 W/m 9,7 km/h (2 Bft) 95,74 %
12.06.2019 08:20 17,2 C 21,7 C 18,3 C 87 % 1007,4 hPa 0,0 l/m 0 min 0 min 183 W/m 6,4 km/h (2 Bft) 97,87 %
12.06.2019 08:22 17,3 C 22,8 C 18,3 C 87 % 1007,5 hPa 0,0 l/m 0 min 0 min 168 W/m 9,7 km/h (2 Bft) 97,83 %
12.06.2019 08:24 17,4 C 22,2 C 18,3 C 87 % 1007,4 hPa 0,0 l/m 0 min 0 min 143 W/m 6,4 km/h (2 Bft) 97,87 %
12.06.2019 08:26 17,6 C 22,8 C 19,4 C 87 % 1007,4 hPa 0,0 l/m 0 min 0 min 133 W/m 3,2 km/h (1 Bft) 93,62 %
12.06.2019 08:28 17,7 C 21,7 C 19,4 C 86 % 1007,5 hPa 0,0 l/m 0 min 0 min 105 W/m 6,4 km/h (2 Bft) 97,87 %
12.06.2019 08:30 17,8 C 21,1 C 19,4 C 86 % 1007,5 hPa 0,0 l/m 0 min 0 min 96 W/m 6,4 km/h (2 Bft) 97,87 %
12.06.2019 08:32 17,9 C 21,7 C 20,6 C 86 % 1007,5 hPa 0,0 l/m 0 min 0 min 107 W/m 6,4 km/h (2 Bft) 97,87 %
12.06.2019 08:34 18,0 C 22,8 C 21,7 C 85 % 1007,5 hPa 0,0 l/m 0 min 0 min 125 W/m 3,2 km/h (1 Bft) 97,83 %
12.06.2019 08:36 18,1 C 23,3 C 22,8 C 85 % 1007,4 hPa 0,0 l/m 0 min 0 min 147 W/m 6,4 km/h (2 Bft) 96,61 %
12.06.2019 08:38 18,2 C 23,3 C 23,3 C 85 % 1007,5 hPa 0,0 l/m 0 min 0 min 144 W/m 6,4 km/h (2 Bft) 97,14 %
12.06.2019 08:40 18,3 C 22,8 C 22,8 C 85 % 1007,5 hPa 0,0 l/m 0 min 0 min 135 W/m 6,4 km/h (2 Bft) 97,87 %
12.06.2019 08:42 18,3 C 21,7 C 21,7 C 84 % 1007,4 hPa 0,0 l/m 0 min 0 min 129 W/m 6,4 km/h (2 Bft) 97,87 %
12.06.2019 08:44 18,4 C 21,1 C 21,1 C 84 % 1007,4 hPa 0,0 l/m 0 min 0 min 138 W/m 6,4 km/h (2 Bft) 97,83 %
12.06.2019 08:46 18,4 C 21,7 C 21,7 C 83 % 1007,5 hPa 0,0 l/m 0 min 0 min 153 W/m 6,4 km/h (2 Bft) 97,87 %
12.06.2019 08:48 18,5 C 21,1 C 21,1 C 83 % 1007,4 hPa 0,0 l/m 0 min 0 min 156 W/m 6,4 km/h (2 Bft) 97,87 %
12.06.2019 08:50 18,6 C 22,2 C 21,1 C 83 % 1007,5 hPa 0,0 l/m 0 min 0 min 164 W/m 6,4 km/h (2 Bft) 97,87 %
12.06.2019 08:52 18,7 C 23,3 C 22,8 C 83 % 1007,6 hPa 0,0 l/m 0 min 0 min 216 W/m 6,4 km/h (2 Bft) 97,87 %
12.06.2019 08:54 18,8 C 22,8 C 22,2 C 84 % 1007,5 hPa 0,0 l/m 0 min 0 min 208 W/m 6,4 km/h (2 Bft) 95,74 %
12.06.2019 08:56 18,9 C 23,9 C 23,9 C 83 % 1007,5 hPa 0,0 l/m 0 min 0 min 256 W/m 6,4 km/h (2 Bft) 100,00 %
12.06.2019 08:58 19,1 C 25,0 C 25,0 C 83 % 1007,4 hPa 0,0 l/m 2 min 0 min 269 W/m 6,4 km/h (2 Bft) 100,00 %
12.06.2019 09:00 19,2 C 26,1 C 25,6 C 82 % 1007,5 hPa 0,0 l/m 2 min 0 min 271 W/m 6,4 km/h (2 Bft) 100,00 %
12.06.2019 09:05 19,4 C 22,8 C 22,8 C 81 % 1007,5 hPa 0,0 l/m 0 min 0 min 226 W/m 6,4 km/h (2 Bft) 100,00 %
12.06.2019 09:08 19,5 C 22,8 C 22,8 C 81 % 1007,3 hPa 0,0 l/m 3 min 0 min 299 W/m 6,4 km/h (2 Bft) 100,00 %
12.06.2019 09:10 19,6 C 23,9 C 23,3 C 80 % 1007,3 hPa 0,0 l/m 2 min 0 min 339 W/m 3,2 km/h (1 Bft) 97,87 %
12.06.2019 09:12 19,7 C 25,0 C 23,3 C 80 % 1007,2 hPa 0,0 l/m 2 min 0 min 454 W/m 3,2 km/h (1 Bft) 100,00 %
12.06.2019 09:14 19,8 C 26,1 C 23,3 C 80 % 1007,1 hPa 0,0 l/m 2 min 0 min 444 W/m 6,4 km/h (2 Bft) 97,87 %
12.06.2019 09:16 19,9 C 26,7 C 27,2 C 80 % 1007,1 hPa 0,0 l/m 2 min 0 min 457 W/m 6,4 km/h (2 Bft) 97,87 %
12.06.2019 09:18 20,1 C 26,1 C 27,8 C 80 % 1007,2 hPa 0,0 l/m 2 min 0 min 472 W/m 9,7 km/h (2 Bft) 100,00 %
12.06.2019 09:20 20,2 C 26,7 C 28,3 C 80 % 1007,1 hPa 0,0 l/m 2 min 0 min 479 W/m 6,4 km/h (2 Bft) 95,74 %
12.06.2019 09:22 20,3 C 27,2 C 27,8 C 80 % 1007,2 hPa 0,0 l/m 2 min 0 min 466 W/m 6,4 km/h (2 Bft) 97,87 %
12.06.2019 09:24 20,4 C 26,7 C 27,8 C 80 % 1007,2 hPa 0,0 l/m 2 min 0 min 481 W/m 6,4 km/h (2 Bft) 97,83 %
12.06.2019 09:26 20,6 C 26,7 C 28,3 C 78 % 1007,1 hPa 0,0 l/m 2 min 0 min 477 W/m 6,4 km/h (2 Bft) 97,87 %
12.06.2019 09:28 20,6 C 26,1 C 27,8 C 78 % 1007,1 hPa 0,0 l/m 2 min 0 min 376 W/m 6,4 km/h (2 Bft) 97,87 %
12.06.2019 09:30 20,7 C 27,2 C 28,3 C 77 % 1007,0 hPa 0,0 l/m 2 min 0 min 501 W/m 6,4 km/h (2 Bft) 97,87 %
12.06.2019 09:32 20,8 C 27,2 C 28,3 C 77 % 1006,9 hPa 0,0 l/m 2 min 0 min 507 W/m 6,4 km/h (2 Bft) 97,87 %
12.06.2019 09:34 20,9 C 27,8 C 28,9 C 77 % 1006,8 hPa 0,0 l/m 2 min 0 min 518 W/m 6,4 km/h (2 Bft) 95,74 %
12.06.2019 09:36 21,0 C 27,8 C 29,4 C 77 % 1006,8 hPa 0,0 l/m 2 min 0 min 526 W/m 6,4 km/h (2 Bft) 97,83 %
12.06.2019 09:38 21,1 C 27,8 C 29,4 C 77 % 1006,8 hPa 0,0 l/m 2 min 0 min 525 W/m 9,7 km/h (2 Bft) 95,74 %
12.06.2019 09:40 21,2 C 28,3 C 28,9 C 77 % 1006,8 hPa 0,0 l/m 2 min 0 min 530 W/m 6,4 km/h (2 Bft) 97,87 %
12.06.2019 09:42 21,3 C 28,3 C 29,4 C 78 % 1006,8 hPa 0,0 l/m 2 min 0 min 552 W/m 6,4 km/h (2 Bft) 95,74 %
12.06.2019 09:44 21,4 C 28,3 C 30,6 C 76 % 1006,9 hPa 0,0 l/m 2 min 0 min 583 W/m 9,7 km/h (2 Bft) 97,87 %
12.06.2019 09:46 21,6 C 26,7 C 28,9 C 76 % 1006,9 hPa 0,0 l/m 2 min 0 min 586 W/m 9,7 km/h (2 Bft) 95,74 %
12.06.2019 09:48 21,6 C 26,7 C 28,9 C 76 % 1007,0 hPa 0,0 l/m 2 min 0 min 587 W/m 9,7 km/h (2 Bft) 97,83 %
12.06.2019 09:50 21,7 C 27,2 C 27,8 C 75 % 1007,0 hPa 0,0 l/m 2 min 0 min 610 W/m 9,7 km/h (2 Bft) 97,87 %
12.06.2019 09:52 21,8 C 27,8 C 28,3 C 75 % 1007,1 hPa 0,0 l/m 2 min 0 min 635 W/m 6,4 km/h (2 Bft) 95,74 %
12.06.2019 09:54 21,9 C 28,3 C 28,9 C 76 % 1007,1 hPa 0,0 l/m 2 min 0 min 618 W/m 6,4 km/h (2 Bft) 95,74 %
12.06.2019 09:56 22,0 C 27,8 C 28,3 C 75 % 1007,1 hPa 0,0 l/m 2 min 0 min 348 W/m 6,4 km/h (2 Bft) 93,62 %
12.06.2019 09:58 22,1 C 28,3 C 28,9 C 74 % 1007,0 hPa 0,0 l/m 2 min 0 min 342 W/m 6,4 km/h (2 Bft) 97,87 %
12.06.2019 10:00 22,2 C 28,3 C 28,9 C 74 % 1007,0 hPa 0,0 l/m 2 min 0 min 691 W/m 6,4 km/h (2 Bft) 100,00 %
12.06.2019 10:02 22,3 C 27,8 C 28,3 C 74 % 1007,1 hPa 0,0 l/m 2 min 0 min 424 W/m 6,4 km/h (2 Bft) 97,87 %
12.06.2019 10:04 22,3 C 26,7 C 27,2 C 73 % 1007,1 hPa 0,0 l/m 0 min 0 min 336 W/m 6,4 km/h (2 Bft) 100,00 %
12.06.2019 10:06 22,4 C 26,7 C 27,2 C 73 % 1007,2 hPa 0,0 l/m 2 min 0 min 376 W/m 6,4 km/h (2 Bft) 97,87 %
12.06.2019 10:08 22,4 C 27,2 C 27,2 C 73 % 1007,2 hPa 0,0 l/m 2 min 0 min 454 W/m 3,2 km/h (1 Bft) 97,87 %
12.06.2019 10:10 22,5 C 26,1 C 27,2 C 73 % 1007,2 hPa 0,0 l/m 2 min 0 min 568 W/m 6,4 km/h (2 Bft) 100,00 %
12.06.2019 10:12 22,5 C 23,9 C 25,0 C 73 % 1007,2 hPa 0,0 l/m 0 min 0 min 229 W/m 6,4 km/h (2 Bft) 100,00 %
12.06.2019 10:14 22,5 C 22,2 C 23,3 C 71 % 1007,3 hPa 0,0 l/m 0 min 0 min 177 W/m 9,7 km/h (2 Bft) 95,74 %
12.06.2019 10:16 22,4 C 21,1 C 21,1 C 70 % 1007,4 hPa 0,0 l/m 0 min 0 min 130 W/m 16,1 km/h (3 Bft) 97,87 %
12.06.2019 10:18 22,3 C 20,6 C 20,6 C 70 % 1007,4 hPa 0,0 l/m 0 min 0 min 128 W/m 9,7 km/h (2 Bft) 97,87 %
12.06.2019 10:20 22,3 C 20,0 C 20,0 C 70 % 1007,4 hPa 0,0 l/m 0 min 0 min 140 W/m 12,9 km/h (3 Bft) 100,00 %
12.06.2019 10:22 22,2 C 20,0 C 20,0 C 71 % 1007,3 hPa 0,0 l/m 0 min 0 min 130 W/m 9,7 km/h (2 Bft) 100,00 %
12.06.2019 10:24 22,1 C 20,0 C 19,4 C 71 % 1007,3 hPa 0,0 l/m 0 min 0 min 94 W/m 9,7 km/h (2 Bft) 95,65 %
12.06.2019 10:26 22,0 C 19,4 C 19,4 C 71 % 1007,2 hPa 0,0 l/m 0 min 0 min 84 W/m 6,4 km/h (2 Bft) 91,49 %
12.06.2019 10:28 21,9 C 20,0 C 20,0 C 72 % 1007,3 hPa 0,0 l/m 0 min 0 min 103 W/m 0,0 km/h (0 Bft) 97,87 %
12.06.2019 10:30 21,8 C 20,0 C 20,0 C 74 % 1007,2 hPa 0,0 l/m 0 min 0 min 133 W/m 3,2 km/h (1 Bft) 97,87 %
12.06.2019 10:32 21,7 C 20,0 C 20,0 C 73 % 1007,2 hPa 0,0 l/m 0 min 0 min 134 W/m 6,4 km/h (2 Bft) 97,87 %
12.06.2019 10:34 21,6 C 20,0 C 19,4 C 73 % 1007,2 hPa 0,0 l/m 0 min 0 min 119 W/m 12,9 km/h (3 Bft) 95,65 %
12.06.2019 10:36 21,5 C 20,0 C 19,4 C 72 % 1007,2 hPa 0,0 l/m 0 min 0 min 110 W/m 16,1 km/h (3 Bft) 97,87 %
12.06.2019 10:38 21,4 C 20,0 C 19,4 C 73 % 1007,2 hPa 0,0 l/m 0 min 0 min 113 W/m 9,7 km/h (2 Bft) 95,74 %
12.06.2019 10:40 21,3 C 20,0 C 19,4 C 73 % 1007,2 hPa 0,0 l/m 0 min 0 min 111 W/m 6,4 km/h (2 Bft) 97,87 %
12.06.2019 10:42 21,3 C 20,0 C 19,4 C 73 % 1007,2 hPa 0,0 l/m 0 min 0 min 100 W/m 9,7 km/h (2 Bft) 95,74 %
12.06.2019 10:44 21,2 C 19,4 C 19,4 C 73 % 1007,2 hPa 0,0 l/m 0 min 0 min 102 W/m 9,7 km/h (2 Bft) 95,92 %
12.06.2019 10:46 21,1 C 19,4 C 19,4 C 73 % 1007,2 hPa 0,0 l/m 0 min 0 min 86 W/m 6,4 km/h (2 Bft) 97,83 %
12.06.2019 10:48 21,0 C 19,4 C 19,4 C 73 % 1007,2 hPa 0,0 l/m 0 min 0 min 78 W/m 6,4 km/h (2 Bft) 97,87 %
12.06.2019 10:50 21,0 C 19,4 C 19,4 C 73 % 1007,2 hPa 0,0 l/m 0 min 0 min 93 W/m 9,7 km/h (2 Bft) 97,87 %
12.06.2019 10:52 20,9 C 20,0 C 19,4 C 73 % 1007,1 hPa 0,0 l/m 0 min 0 min 136 W/m 9,7 km/h (2 Bft) 97,87 %
12.06.2019 10:54 20,9 C 20,0 C 19,4 C 73 % 1007,2 hPa 0,0 l/m 0 min 0 min 153 W/m 6,4 km/h (2 Bft) 95,74 %
12.06.2019 10:56 20,8 C 20,0 C 19,4 C 73 % 1007,1 hPa 0,0 l/m 0 min 0 min 148 W/m 9,7 km/h (2 Bft) 97,87 %
12.06.2019 10:58 20,8 C 20,0 C 19,4 C 74 % 1007,2 hPa 0,0 l/m 0 min 0 min 107 W/m 6,4 km/h (2 Bft) 97,83 %
12.06.2019 11:00 20,7 C 19,4 C 19,4 C 74 % 1007,2 hPa 0,0 l/m 0 min 0 min 70 W/m 6,4 km/h (2 Bft) 97,87 %
12.06.2019 11:02 20,7 C 19,4 C 19,4 C 74 % 1007,2 hPa 0,0 l/m 0 min 0 min 46 W/m 6,4 km/h (2 Bft) 97,87 %
12.06.2019 11:04 20,6 C 19,4 C 18,9 C 74 % 1007,2 hPa 0,0 l/m 0 min 0 min 28 W/m 9,7 km/h (2 Bft) 97,87 %
12.06.2019 11:06 20,6 C 18,9 C 18,9 C 74 % 1007,6 hPa 0,0 l/m 0 min 0 min 20 W/m 16,1 km/h (3 Bft) 96,00 %
12.06.2019 11:08 20,4 C 18,3 C 18,3 C 75 % 1007,7 hPa 0,0 l/m 0 min 0 min 14 W/m 25,7 km/h (4 Bft) 95,65 %
12.06.2019 11:10 20,3 C 17,2 C 16,7 C 76 % 1007,9 hPa 0,0 l/m 0 min 2 min 8 W/m 29,0 km/h (5 Bft) 91,49 %
12.06.2019 11:12 19,9 C 15,6 C 15,6 C 77 % 1008,4 hPa 0,0 l/m 0 min 2 min 1 W/m 45,1 km/h (6 Bft) 93,62 %
12.06.2019 11:14 19,6 C 14,4 C 14,4 C 78 % 1008,1 hPa 0,2 l/m 0 min 2 min 7 W/m 38,6 km/h (5 Bft) 95,74 %
12.06.2019 11:16 18,9 C 13,9 C 13,9 C 79 % 1008,4 hPa 0,2 l/m 0 min 2 min 28 W/m 45,1 km/h (6 Bft) 95,74 %
12.06.2019 11:18 18,4 C 13,9 C 13,9 C 81 % 1007,7 hPa 0,2 l/m 0 min 2 min 80 W/m 12,9 km/h (3 Bft) 95,74 %
12.06.2019 11:20 18,1 C 13,9 C 13,9 C 82 % 1007,7 hPa 0,2 l/m 0 min 2 min 81 W/m 12,9 km/h (3 Bft) 95,65 %
12.06.2019 11:22 17,7 C 13,9 C 13,9 C 83 % 1007,7 hPa 0,0 l/m 0 min 2 min 46 W/m 22,5 km/h (4 Bft) 93,62 %
12.06.2019 11:24 17,4 C 13,9 C 13,9 C 84 % 1007,8 hPa 0,0 l/m 0 min 2 min 50 W/m 22,5 km/h (4 Bft) 97,96 %
12.06.2019 11:26 17,2 C 13,9 C 13,9 C 84 % 1007,7 hPa 0,0 l/m 0 min 2 min 66 W/m 12,9 km/h (3 Bft) 97,87 %
12.06.2019 11:28 16,9 C 13,9 C 13,9 C 85 % 1007,5 hPa 0,0 l/m 0 min 0 min 70 W/m 19,3 km/h (3 Bft) 97,87 %
12.06.2019 11:30 16,7 C 13,9 C 13,9 C 86 % 1007,4 hPa 0,0 l/m 0 min 0 min 65 W/m 19,3 km/h (3 Bft) 97,83 %
12.06.2019 11:32 16,6 C 13,9 C 13,9 C 87 % 1007,6 hPa 0,0 l/m 0 min 0 min 59 W/m 19,3 km/h (3 Bft) 97,87 %
12.06.2019 11:34 16,4 C 13,9 C 13,9 C 87 % 1007,5 hPa 0,0 l/m 0 min 0 min 44 W/m 9,7 km/h (2 Bft) 95,74 %
12.06.2019 11:36 16,3 C 13,9 C 13,9 C 88 % 1007,6 hPa 0,0 l/m 0 min 0 min 38 W/m 19,3 km/h (3 Bft) 97,87 %
12.06.2019 11:38 16,2 C 13,9 C 13,9 C 88 % 1007,8 hPa 0,0 l/m 0 min 0 min 40 W/m 12,9 km/h (3 Bft) 95,74 %
12.06.2019 11:40 16,1 C 13,9 C 13,9 C 89 % 1008,0 hPa 0,0 l/m 0 min 0 min 31 W/m 22,5 km/h (4 Bft) 97,87 %
12.06.2019 11:42 16,0 C 13,9 C 13,9 C 89 % 1008,0 hPa 0,0 l/m 0 min 2 min 26 W/m 16,1 km/h (3 Bft) 97,83 %
12.06.2019 11:44 15,9 C 13,9 C 13,3 C 89 % 1007,9 hPa 0,0 l/m 0 min 2 min 30 W/m 9,7 km/h (2 Bft) 95,74 %
12.06.2019 11:46 15,8 C 13,9 C 13,9 C 90 % 1007,9 hPa 0,0 l/m 0 min 2 min 34 W/m 12,9 km/h (3 Bft) 95,74 %
12.06.2019 11:48 15,7 C 13,9 C 13,9 C 90 % 1008,0 hPa 0,0 l/m 0 min 2 min 37 W/m 12,9 km/h (3 Bft) 97,87 %
12.06.2019 11:50 15,7 C 13,9 C 13,9 C 90 % 1008,2 hPa 0,2 l/m 0 min 2 min 35 W/m 9,7 km/h (2 Bft) 97,87 %
12.06.2019 11:52 15,7 C 13,3 C 13,3 C 91 % 1008,2 hPa 0,0 l/m 0 min 2 min 30 W/m 22,5 km/h (4 Bft) 95,74 %
12.06.2019 11:54 15,6 C 13,3 C 13,3 C 91 % 1008,2 hPa 0,0 l/m 0 min 2 min 32 W/m 12,9 km/h (3 Bft) 100,00 %
12.06.2019 11:56 15,5 C 13,3 C 13,3 C 91 % 1008,2 hPa 0,0 l/m 0 min 2 min 27 W/m 12,9 km/h (3 Bft) 95,74 %
12.06.2019 11:58 15,4 C 13,3 C 13,3 C 91 % 1008,2 hPa 0,0 l/m 0 min 2 min 24 W/m 16,1 km/h (3 Bft) 97,87 %
12.06.2019 12:00 15,3 C 13,3 C 13,3 C 92 % 1008,2 hPa 0,0 l/m 0 min 2 min 25 W/m 25,7 km/h (4 Bft) 95,74 %
12.06.2019 12:02 15,3 C 13,3 C 13,3 C 92 % 1008,4 hPa 0,2 l/m 0 min 2 min 25 W/m 22,5 km/h (4 Bft) 95,83 %
12.06.2019 12:04 15,2 C 13,3 C 13,3 C 92 % 1008,4 hPa 0,0 l/m 0 min 2 min 24 W/m 25,7 km/h (4 Bft) 95,74 %
12.06.2019 12:08 15,1 C 13,3 C 13,3 C 92 % 1008,6 hPa 0,0 l/m 0 min 4 min 24 W/m 25,7 km/h (4 Bft) 95,70 %
12.06.2019 12:10 15,0 C 13,3 C 12,8 C 92 % 1008,5 hPa 0,0 l/m 0 min 2 min 25 W/m 19,3 km/h (3 Bft) 93,62 %
12.06.2019 12:12 14,9 C 13,3 C 12,8 C 93 % 1008,4 hPa 0,2 l/m 0 min 2 min 27 W/m 12,9 km/h (3 Bft) 95,74 %
12.06.2019 12:14 14,9 C 13,3 C 13,3 C 93 % 1008,5 hPa 0,0 l/m 0 min 2 min 31 W/m 12,9 km/h (3 Bft) 97,87 %
12.06.2019 12:16 14,9 C 13,3 C 13,3 C 93 % 1008,6 hPa 0,0 l/m 0 min 2 min 35 W/m 16,1 km/h (3 Bft) 97,87 %
12.06.2019 12:18 14,9 C 13,3 C 13,3 C 93 % 1008,7 hPa 0,2 l/m 0 min 2 min 38 W/m 22,5 km/h (4 Bft) 97,83 %
12.06.2019 12:20 14,9 C 13,3 C 12,8 C 93 % 1008,8 hPa 0,2 l/m 0 min 2 min 40 W/m 25,7 km/h (4 Bft) 97,87 %
12.06.2019 12:22 14,8 C 13,3 C 12,8 C 93 % 1008,9 hPa 0,2 l/m 0 min 2 min 46 W/m 22,5 km/h (4 Bft) 97,87 %
12.06.2019 12:24 14,8 C 13,3 C 12,8 C 93 % 1008,9 hPa 0,2 l/m 0 min 2 min 48 W/m 25,7 km/h (4 Bft) 95,74 %
12.06.2019 12:26 14,7 C 12,8 C 12,8 C 93 % 1009,0 hPa 0,2 l/m 0 min 2 min 42 W/m 22,5 km/h (4 Bft) 97,87 %
12.06.2019 12:28 14,7 C 13,3 C 12,8 C 94 % 1009,2 hPa 0,0 l/m 0 min 2 min 50 W/m 22,5 km/h (4 Bft) 95,74 %
12.06.2019 12:30 14,7 C 13,3 C 12,8 C 94 % 1009,1 hPa 0,2 l/m 0 min 2 min 54 W/m 25,7 km/h (4 Bft) 97,83 %
12.06.2019 12:32 14,6 C 12,8 C 12,8 C 94 % 1009,2 hPa 0,2 l/m 0 min 2 min 49 W/m 32,2 km/h (5 Bft) 97,87 %
12.06.2019 12:34 14,6 C 12,8 C 12,8 C 94 % 1009,3 hPa 0,0 l/m 0 min 2 min 47 W/m 25,7 km/h (4 Bft) 95,74 %
12.06.2019 12:36 14,6 C 13,3 C 12,8 C 94 % 1009,3 hPa 0,2 l/m 0 min 2 min 47 W/m 22,5 km/h (4 Bft) 97,87 %
12.06.2019 12:38 14,6 C 12,8 C 12,8 C 94 % 1009,4 hPa 0,2 l/m 0 min 2 min 43 W/m 22,5 km/h (4 Bft) 95,74 %
12.06.2019 12:40 14,6 C 12,8 C 12,8 C 94 % 1009,5 hPa 0,0 l/m 0 min 2 min 32 W/m 16,1 km/h (3 Bft) 97,37 %
12.06.2019 12:42 14,5 C 12,8 C 12,8 C 94 % 1009,5 hPa 0,2 l/m 0 min 2 min 34 W/m 32,2 km/h (5 Bft) 95,74 %
12.06.2019 12:44 14,5 C 13,3 C 12,8 C 94 % 1009,6 hPa 0,2 l/m 0 min 2 min 37 W/m 19,3 km/h (3 Bft) 97,83 %
12.06.2019 12:46 14,5 C 13,3 C 12,8 C 95 % 1009,4 hPa 0,4 l/m 0 min 2 min 40 W/m 16,1 km/h (3 Bft) 97,96 %
12.06.2019 12:48 14,5 C 13,3 C 12,8 C 95 % 1009,3 hPa 0,0 l/m 0 min 2 min 49 W/m 22,5 km/h (4 Bft) 95,74 %
12.06.2019 12:50 14,5 C 13,3 C 12,8 C 95 % 1009,1 hPa 0,4 l/m 0 min 2 min 68 W/m 9,7 km/h (2 Bft) 100,00 %
12.06.2019 12:52 14,5 C 13,3 C 13,3 C 95 % 1009,0 hPa 0,0 l/m 0 min 2 min 93 W/m 6,4 km/h (2 Bft) 100,00 %
12.06.2019 12:54 14,5 C 13,3 C 13,3 C 95 % 1009,1 hPa 0,2 l/m 0 min 2 min 117 W/m 12,9 km/h (3 Bft) 100,00 %
12.06.2019 12:56 14,5 C 13,3 C 13,3 C 95 % 1009,2 hPa 0,2 l/m 0 min 2 min 146 W/m 9,7 km/h (2 Bft) 100,00 %
12.06.2019 12:58 14,6 C 13,9 C 13,3 C 95 % 1009,1 hPa 0,0 l/m 0 min 2 min 148 W/m 9,7 km/h (2 Bft) 100,00 %
12.06.2019 13:00 14,6 C 13,9 C 13,3 C 95 % 1009,1 hPa 0,0 l/m 0 min 2 min 150 W/m 16,1 km/h (3 Bft) 100,00 %
12.06.2019 13:02 14,6 C 13,9 C 13,3 C 95 % 1009,1 hPa 0,0 l/m 0 min 2 min 160 W/m 6,4 km/h (2 Bft) 97,87 %
12.06.2019 13:04 14,6 C 13,9 C 13,3 C 96 % 1009,2 hPa 0,0 l/m 0 min 2 min 151 W/m 9,7 km/h (2 Bft) 97,87 %
12.06.2019 13:06 14,6 C 13,9 C 13,3 C 96 % 1009,2 hPa 0,0 l/m 0 min 2 min 159 W/m 6,4 km/h (2 Bft) 100,00 %
12.06.2019 13:08 14,7 C 13,9 C 13,3 C 96 % 1009,0 hPa 0,0 l/m 0 min 2 min 177 W/m 9,7 km/h (2 Bft) 100,00 %
12.06.2019 13:10 14,6 C 13,3 C 13,3 C 96 % 1009,0 hPa 0,0 l/m 0 min 2 min 166 W/m 22,5 km/h (4 Bft) 100,00 %
12.06.2019 13:12 14,6 C 13,9 C 13,3 C 96 % 1008,9 hPa 0,0 l/m 0 min 2 min 164 W/m 16,1 km/h (3 Bft) 97,87 %
12.06.2019 13:14 14,6 C 13,9 C 13,9 C 96 % 1008,7 hPa 0,0 l/m 0 min 2 min 177 W/m 6,4 km/h (2 Bft) 95,74 %
12.06.2019 13:16 14,7 C 13,9 C 13,9 C 96 % 1008,7 hPa 0,0 l/m 0 min 2 min 179 W/m 9,7 km/h (2 Bft) 100,00 %
12.06.2019 13:18 14,7 C 13,9 C 13,9 C 96 % 1008,8 hPa 0,0 l/m 0 min 2 min 193 W/m 9,7 km/h (2 Bft) 100,00 %
12.06.2019 13:20 14,7 C 14,4 C 13,9 C 96 % 1008,9 hPa 0,0 l/m 0 min 2 min 196 W/m 9,7 km/h (2 Bft) 97,87 %
12.06.2019 13:22 14,7 C 13,9 C 13,9 C 96 % 1009,0 hPa 0,0 l/m 0 min 2 min 176 W/m 16,1 km/h (3 Bft) 97,87 %
12.06.2019 13:24 14,7 C 13,9 C 13,9 C 96 % 1008,9 hPa 0,0 l/m 0 min 2 min 163 W/m 6,4 km/h (2 Bft) 100,00 %
12.06.2019 13:26 14,7 C 14,4 C 13,9 C 96 % 1008,7 hPa 0,0 l/m 0 min 2 min 224 W/m 0,0 km/h (0 Bft) 100,00 %
12.06.2019 13:28 14,8 C 14,4 C 13,9 C 96 % 1008,8 hPa 0,2 l/m 0 min 2 min 297 W/m 12,9 km/h (3 Bft) 100,00 %
12.06.2019 13:30 14,8 C 14,4 C 13,9 C 96 % 1009,1 hPa 0,0 l/m 0 min 2 min 333 W/m 19,3 km/h (3 Bft) 97,83 %
12.06.2019 13:32 14,9 C 15,6 C 15,0 C 96 % 1008,6 hPa 0,0 l/m 0 min 2 min 353 W/m 9,7 km/h (2 Bft) 97,87 %
12.06.2019 13:34 15,0 C 16,1 C 16,1 C 96 % 1008,8 hPa 0,0 l/m 0 min 2 min 353 W/m 19,3 km/h (3 Bft) 100,00 %
12.06.2019 13:36 15,2 C 16,1 C 15,6 C 96 % 1008,6 hPa 0,0 l/m 0 min 2 min 340 W/m 19,3 km/h (3 Bft) 97,87 %
12.06.2019 13:38 15,3 C 16,1 C 15,6 C 96 % 1008,7 hPa 0,0 l/m 0 min 2 min 330 W/m 9,7 km/h (2 Bft) 97,87 %
12.06.2019 13:40 15,4 C 16,1 C 15,6 C 96 % 1008,8 hPa 0,0 l/m 0 min 2 min 395 W/m 16,1 km/h (3 Bft) 96,30 %
12.06.2019 13:42 15,4 C 15,6 C 15,0 C 96 % 1009,1 hPa 0,0 l/m 2 min 2 min 464 W/m 29,0 km/h (5 Bft) 93,62 %
12.06.2019 13:44 15,4 C 15,6 C 15,0 C 96 % 1008,7 hPa 0,0 l/m 0 min 0 min 385 W/m 12,9 km/h (3 Bft) 97,87 %
12.06.2019 13:46 15,4 C 15,6 C 15,0 C 96 % 1008,4 hPa 0,0 l/m 0 min 0 min 345 W/m 12,9 km/h (3 Bft) 97,87 %
12.06.2019 13:48 15,4 C 15,6 C 15,0 C 96 % 1008,5 hPa 0,0 l/m 0 min 0 min 334 W/m 12,9 km/h (3 Bft) 97,87 %
12.06.2019 13:50 15,4 C 15,6 C 15,0 C 96 % 1008,9 hPa 0,0 l/m 0 min 0 min 315 W/m 19,3 km/h (3 Bft) 97,87 %
12.06.2019 13:52 15,5 C 16,7 C 15,0 C 96 % 1009,0 hPa 0,0 l/m 0 min 0 min 366 W/m 16,1 km/h (3 Bft) 97,83 %
12.06.2019 13:54 15,5 C 17,2 C 15,6 C 96 % 1009,2 hPa 0,0 l/m 0 min 0 min 399 W/m 16,1 km/h (3 Bft) 97,87 %
12.06.2019 13:56 15,6 C 16,7 C 15,0 C 96 % 1009,1 hPa 0,0 l/m 2 min 0 min 475 W/m 22,5 km/h (4 Bft) 97,87 %
12.06.2019 13:58 15,6 C 16,1 C 15,0 C 96 % 1009,2 hPa 0,0 l/m 0 min 2 min 397 W/m 16,1 km/h (3 Bft) 97,87 %
12.06.2019 14:00 15,6 C 16,1 C 15,0 C 95 % 1009,2 hPa 0,0 l/m 0 min 2 min 391 W/m 9,7 km/h (2 Bft) 97,87 %
12.06.2019 14:02 15,6 C 16,1 C 15,0 C 95 % 1009,0 hPa 0,0 l/m 0 min 2 min 363 W/m 9,7 km/h (2 Bft) 95,74 %
12.06.2019 14:04 15,6 C 15,6 C 14,4 C 95 % 1009,1 hPa 0,0 l/m 0 min 2 min 395 W/m 19,3 km/h (3 Bft) 95,65 %
12.06.2019 14:06 15,6 C 16,1 C 15,0 C 95 % 1009,1 hPa 0,0 l/m 0 min 2 min 408 W/m 12,9 km/h (3 Bft) 95,74 %
12.06.2019 14:08 15,6 C 17,8 C 15,6 C 95 % 1009,2 hPa 0,0 l/m 2 min 0 min 521 W/m 6,4 km/h (2 Bft) 97,87 %
12.06.2019 14:10 15,7 C 17,8 C 15,0 C 94 % 1009,4 hPa 0,0 l/m 2 min 0 min 516 W/m 22,5 km/h (4 Bft) 100,00 %
12.06.2019 14:12 15,7 C 18,9 C 16,1 C 94 % 1009,3 hPa 0,0 l/m 2 min 0 min 525 W/m 16,1 km/h (3 Bft) 93,62 %
12.06.2019 14:14 15,8 C 20,6 C 17,8 C 94 % 1009,4 hPa 0,0 l/m 2 min 0 min 545 W/m 16,1 km/h (3 Bft) 97,87 %
12.06.2019 14:16 16,0 C 22,2 C 19,4 C 94 % 1009,5 hPa 0,0 l/m 2 min 0 min 1144 W/m 12,9 km/h (3 Bft) 95,74 %
12.06.2019 14:18 16,2 C 22,2 C 18,9 C 94 % 1009,4 hPa 0,0 l/m 2 min 0 min 1136 W/m 12,9 km/h (3 Bft) 97,83 %
12.06.2019 14:20 16,3 C 22,2 C 18,9 C 94 % 1009,4 hPa 0,0 l/m 2 min 0 min 1136 W/m 12,9 km/h (3 Bft) 97,87 %
12.06.2019 14:22 16,4 C 21,1 C 18,3 C 93 % 1009,3 hPa 0,0 l/m 2 min 0 min 1115 W/m 19,3 km/h (3 Bft) 97,87 %
12.06.2019 14:24 16,6 C 20,6 C 18,3 C 93 % 1009,4 hPa 0,0 l/m 2 min 0 min 571 W/m 12,9 km/h (3 Bft) 93,62 %
12.06.2019 14:26 16,7 C 20,6 C 18,9 C 92 % 1009,4 hPa 0,0 l/m 0 min 0 min 407 W/m 9,7 km/h (2 Bft) 97,87 %
12.06.2019 14:28 16,8 C 21,7 C 21,1 C 92 % 1009,4 hPa 0,0 l/m 2 min 0 min 1023 W/m 22,5 km/h (4 Bft) 95,74 %
12.06.2019 14:30 16,9 C 22,2 C 21,1 C 92 % 1009,4 hPa 0,0 l/m 2 min 0 min 858 W/m 19,3 km/h (3 Bft) 97,83 %
12.06.2019 14:32 17,0 C 21,7 C 20,0 C 91 % 1009,4 hPa 0,0 l/m 2 min 0 min 856 W/m 22,5 km/h (4 Bft) 93,62 %
12.06.2019 14:34 17,1 C 20,6 C 18,9 C 90 % 1009,3 hPa 0,0 l/m 2 min 0 min 830 W/m 19,3 km/h (3 Bft) 93,62 %
12.06.2019 14:36 17,1 C 19,4 C 18,3 C 89 % 1009,3 hPa 0,0 l/m 2 min 0 min 455 W/m 25,7 km/h (4 Bft) 91,49 %
12.06.2019 14:38 17,2 C 20,0 C 18,9 C 87 % 1009,2 hPa 0,0 l/m 2 min 0 min 614 W/m 22,5 km/h (4 Bft) 89,36 %
12.06.2019 14:40 17,3 C 20,0 C 18,9 C 87 % 1009,1 hPa 0,0 l/m 2 min 0 min 623 W/m 12,9 km/h (3 Bft) 93,62 %
12.06.2019 14:42 17,3 C 19,4 C 17,8 C 87 % 1009,1 hPa 0,0 l/m 0 min 0 min 415 W/m 25,7 km/h (4 Bft) 93,62 %
12.06.2019 14:44 17,4 C 20,0 C 18,9 C 86 % 1009,0 hPa 0,0 l/m 2 min 0 min 444 W/m 16,1 km/h (3 Bft) 95,74 %
12.06.2019 14:46 17,5 C 21,1 C 19,4 C 86 % 1009,1 hPa 0,0 l/m 2 min 0 min 445 W/m 16,1 km/h (3 Bft) 95,74 %
12.06.2019 14:48 17,6 C 20,0 C 18,9 C 86 % 1009,1 hPa 0,0 l/m 0 min 0 min 411 W/m 22,5 km/h (4 Bft) 95,74 %
12.06.2019 14:50 17,7 C 18,9 C 17,8 C 84 % 1009,1 hPa 0,0 l/m 0 min 0 min 328 W/m 19,3 km/h (3 Bft) 95,74 %
12.06.2019 14:52 17,7 C 20,0 C 18,3 C 83 % 1009,1 hPa 0,0 l/m 0 min 0 min 412 W/m 22,5 km/h (4 Bft) 95,65 %
12.06.2019 14:54 17,7 C 20,0 C 18,9 C 83 % 1009,0 hPa 0,0 l/m 2 min 0 min 840 W/m 19,3 km/h (3 Bft) 95,74 %
12.06.2019 14:56 17,8 C 20,6 C 18,3 C 84 % 1009,0 hPa 0,0 l/m 2 min 0 min 1100 W/m 22,5 km/h (4 Bft) 97,87 %
12.06.2019 14:58 17,9 C 20,0 C 17,8 C 84 % 1009,0 hPa 0,0 l/m 2 min 0 min 1023 W/m 16,1 km/h (3 Bft) 93,62 %
12.06.2019 15:00 17,9 C 19,4 C 17,8 C 83 % 1009,1 hPa 0,0 l/m 2 min 0 min 1023 W/m 25,7 km/h (4 Bft) 95,74 %
12.06.2019 15:02 18,0 C 20,6 C 17,8 C 82 % 1009,0 hPa 0,0 l/m 2 min 0 min 1023 W/m 29,0 km/h (5 Bft) 95,74 %
12.06.2019 15:04 18,0 C 18,9 C 17,2 C 82 % 1009,0 hPa 0,0 l/m 2 min 0 min 926 W/m 32,2 km/h (5 Bft) 95,65 %
12.06.2019 15:06 18,1 C 18,3 C 17,2 C 81 % 1009,0 hPa 0,0 l/m 0 min 0 min 225 W/m 25,7 km/h (4 Bft) 95,74 %
12.06.2019 15:08 18,0 C 17,8 C 16,7 C 80 % 1009,0 hPa 0,0 l/m 0 min 0 min 171 W/m 22,5 km/h (4 Bft) 93,62 %
12.06.2019 15:10 18,0 C 17,8 C 16,7 C 80 % 1009,1 hPa 0,0 l/m 0 min 0 min 190 W/m 25,7 km/h (4 Bft) 97,87 %
12.06.2019 15:12 17,9 C 17,8 C 16,7 C 80 % 1009,1 hPa 0,0 l/m 0 min 0 min 166 W/m 16,1 km/h (3 Bft) 97,87 %
12.06.2019 15:14 17,9 C 17,8 C 16,7 C 80 % 1009,0 hPa 0,0 l/m 0 min 0 min 178 W/m 19,3 km/h (3 Bft) 100,00 %
12.06.2019 15:16 17,9 C 17,8 C 16,7 C 80 % 1009,2 hPa 0,0 l/m 0 min 0 min 143 W/m 16,1 km/h (3 Bft) 97,83 %
12.06.2019 15:18 17,9 C 17,2 C 16,7 C 80 % 1009,2 hPa 0,0 l/m 0 min 0 min 116 W/m 22,5 km/h (4 Bft) 100,00 %
12.06.2019 15:20 17,8 C 17,2 C 16,7 C 80 % 1009,3 hPa 0,0 l/m 0 min 0 min 148 W/m 25,7 km/h (4 Bft) 97,87 %
12.06.2019 15:22 17,8 C 17,8 C 16,7 C 80 % 1009,1 hPa 0,0 l/m 0 min 0 min 258 W/m 22,5 km/h (4 Bft) 100,00 %
12.06.2019 15:24 17,7 C 18,3 C 17,2 C 80 % 1009,2 hPa 0,0 l/m 0 min 0 min 363 W/m 19,3 km/h (3 Bft) 100,00 %
12.06.2019 15:26 17,7 C 19,4 C 17,8 C 81 % 1009,1 hPa 0,0 l/m 2 min 0 min 560 W/m 16,1 km/h (3 Bft) 100,00 %
12.06.2019 15:28 17,8 C 20,0 C 18,3 C 81 % 1009,1 hPa 0,0 l/m 2 min 0 min 707 W/m 22,5 km/h (4 Bft) 100,00 %
12.06.2019 15:30 17,9 C 21,7 C 18,9 C 82 % 1009,1 hPa 0,0 l/m 2 min 0 min 945 W/m 16,1 km/h (3 Bft) 100,00 %
12.06.2019 15:32 18,1 C 22,2 C 18,9 C 83 % 1009,1 hPa 0,0 l/m 2 min 0 min 995 W/m 16,1 km/h (3 Bft) 100,00 %
12.06.2019 15:34 18,2 C 20,6 C 18,9 C 82 % 1009,1 hPa 0,0 l/m 2 min 0 min 596 W/m 19,3 km/h (3 Bft) 100,00 %
12.06.2019 15:36 18,2 C 20,6 C 18,3 C 81 % 1009,1 hPa 0,0 l/m 0 min 0 min 323 W/m 25,7 km/h (4 Bft) 97,87 %
12.06.2019 15:38 18,3 C 21,1 C 18,3 C 80 % 1009,1 hPa 0,0 l/m 0 min 0 min 323 W/m 22,5 km/h (4 Bft) 100,00 %
12.06.2019 15:40 18,4 C 19,4 C 18,3 C 80 % 1009,2 hPa 0,0 l/m 0 min 0 min 302 W/m 25,7 km/h (4 Bft) 100,00 %
12.06.2019 15:42 18,5 C 18,9 C 17,8 C 78 % 1009,3 hPa 0,0 l/m 0 min 0 min 195 W/m 19,3 km/h (3 Bft) 100,00 %
12.06.2019 15:44 18,5 C 18,3 C 17,8 C 78 % 1009,4 hPa 0,0 l/m 0 min 0 min 148 W/m 22,5 km/h (4 Bft) 100,00 %
12.06.2019 15:46 18,5 C 18,3 C 17,2 C 78 % 1009,3 hPa 0,0 l/m 0 min 0 min 186 W/m 32,2 km/h (5 Bft) 100,00 %
12.06.2019 15:48 18,5 C 19,4 C 17,8 C 78 % 1009,4 hPa 0,0 l/m 0 min 0 min 310 W/m 16,1 km/h (3 Bft) 100,00 %
12.06.2019 15:50 18,6 C 21,1 C 18,3 C 79 % 1009,4 hPa 0,0 l/m 2 min 0 min 1044 W/m 16,1 km/h (3 Bft) 100,00 %
12.06.2019 15:52 18,6 C 19,4 C 18,3 C 79 % 1009,4 hPa 0,0 l/m 2 min 0 min 853 W/m 22,5 km/h (4 Bft) 100,00 %
12.06.2019 15:54 18,6 C 18,9 C 17,8 C 78 % 1009,4 hPa 0,0 l/m 0 min 0 min 146 W/m 16,1 km/h (3 Bft) 100,00 %
12.06.2019 15:56 18,7 C 18,9 C 17,8 C 78 % 1009,5 hPa 0,0 l/m 0 min 0 min 180 W/m 32,2 km/h (5 Bft) 100,00 %
12.06.2019 15:58 18,7 C 19,4 C 17,8 C 78 % 1009,4 hPa 0,0 l/m 2 min 0 min 508 W/m 22,5 km/h (4 Bft) 100,00 %
12.06.2019 16:00 18,7 C 20,6 C 18,3 C 78 % 1009,4 hPa 0,0 l/m 2 min 0 min 698 W/m 16,1 km/h (3 Bft) 100,00 %
12.06.2019 16:02 18,8 C 20,0 C 18,3 C 77 % 1009,4 hPa 0,0 l/m 2 min 0 min 760 W/m 29,0 km/h (5 Bft) 100,00 %
12.06.2019 16:04 18,8 C 19,4 C 18,3 C 77 % 1009,5 hPa 0,0 l/m 2 min 0 min 530 W/m 25,7 km/h (4 Bft) 97,87 %
12.06.2019 16:06 18,8 C 19,4 C 18,3 C 77 % 1009,5 hPa 0,0 l/m 0 min 0 min 230 W/m 19,3 km/h (3 Bft) 100,00 %
12.06.2019 16:08 18,9 C 18,9 C 18,3 C 77 % 1009,5 hPa 0,0 l/m 0 min 0 min 215 W/m 22,5 km/h (4 Bft) 100,00 %
12.06.2019 16:10 18,9 C 19,4 C 18,3 C 76 % 1009,5 hPa 0,0 l/m 0 min 0 min 221 W/m 25,7 km/h (4 Bft) 100,00 %
12.06.2019 16:12 18,9 C 19,4 C 18,3 C 76 % 1009,5 hPa 0,0 l/m 0 min 0 min 221 W/m 22,5 km/h (4 Bft) 100,00 %
12.06.2019 16:14 18,9 C 19,4 C 18,3 C 76 % 1009,5 hPa 0,0 l/m 0 min 0 min 288 W/m 16,1 km/h (3 Bft) 100,00 %
12.06.2019 16:16 18,9 C 18,9 C 18,3 C 75 % 1009,6 hPa 0,0 l/m 0 min 0 min 248 W/m 32,2 km/h (5 Bft) 100,00 %
12.06.2019 16:18 18,9 C 18,9 C 17,8 C 74 % 1009,5 hPa 0,0 l/m 0 min 0 min 209 W/m 19,3 km/h (3 Bft) 100,00 %
12.06.2019 16:20 18,9 C 18,9 C 17,8 C 74 % 1009,6 hPa 0,0 l/m 0 min 0 min 271 W/m 32,2 km/h (5 Bft) 97,87 %
12.06.2019 16:22 18,8 C 18,3 C 17,8 C 73 % 1009,5 hPa 0,0 l/m 0 min 0 min 265 W/m 38,6 km/h (5 Bft) 100,00 %
12.06.2019 16:24 18,8 C 18,9 C 17,8 C 73 % 1009,5 hPa 0,0 l/m 0 min 0 min 366 W/m 22,5 km/h (4 Bft) 100,00 %
12.06.2019 16:26 18,8 C 18,9 C 17,8 C 74 % 1009,7 hPa 0,0 l/m 0 min 0 min 289 W/m 25,7 km/h (4 Bft) 100,00 %
12.06.2019 16:28 18,8 C 18,9 C 18,3 C 74 % 1009,5 hPa 0,0 l/m 0 min 0 min 287 W/m 29,0 km/h (5 Bft) 100,00 %
12.06.2019 16:30 18,8 C 19,4 C 18,3 C 74 % 1009,5 hPa 0,0 l/m 0 min 0 min 243 W/m 22,5 km/h (4 Bft) 100,00 %
12.06.2019 16:32 18,8 C 18,9 C 18,3 C 73 % 1009,5 hPa 0,0 l/m 0 min 0 min 244 W/m 22,5 km/h (4 Bft) 100,00 %
12.06.2019 16:34 18,8 C 18,9 C 18,3 C 73 % 1009,5 hPa 0,0 l/m 0 min 0 min 262 W/m 16,1 km/h (3 Bft) 100,00 %
12.06.2019 16:36 18,9 C 19,4 C 18,3 C 74 % 1009,5 hPa 0,0 l/m 2 min 0 min 529 W/m 22,5 km/h (4 Bft) 100,00 %
12.06.2019 16:38 19,0 C 19,4 C 18,3 C 74 % 1009,5 hPa 0,0 l/m 2 min 0 min 842 W/m 9,7 km/h (2 Bft) 97,87 %
12.06.2019 16:40 19,1 C 20,0 C 18,9 C 74 % 1009,5 hPa 0,0 l/m 2 min 0 min 873 W/m 19,3 km/h (3 Bft) 100,00 %
12.06.2019 16:42 19,2 C 20,0 C 18,9 C 73 % 1009,6 hPa 0,0 l/m 2 min 0 min 884 W/m 12,9 km/h (3 Bft) 100,00 %
12.06.2019 16:44 19,2 C 20,0 C 18,9 C 73 % 1009,5 hPa 0,0 l/m 0 min 0 min 250 W/m 29,0 km/h (5 Bft) 100,00 %
12.06.2019 16:46 19,3 C 20,0 C 18,9 C 73 % 1009,5 hPa 0,0 l/m 2 min 0 min 677 W/m 12,9 km/h (3 Bft) 97,83 %
12.06.2019 16:48 19,4 C 20,6 C 18,9 C 73 % 1009,5 hPa 0,0 l/m 2 min 0 min 835 W/m 12,9 km/h (3 Bft) 100,00 %
12.06.2019 16:50 19,6 C 20,6 C 19,4 C 74 % 1009,5 hPa 0,0 l/m 2 min 0 min 824 W/m 22,5 km/h (4 Bft) 100,00 %
12.06.2019 16:52 19,6 C 20,0 C 18,9 C 71 % 1009,4 hPa 0,0 l/m 0 min 0 min 326 W/m 22,5 km/h (4 Bft) 97,87 %
12.06.2019 16:54 19,6 C 20,0 C 18,9 C 70 % 1009,4 hPa 0,0 l/m 0 min 0 min 188 W/m 25,7 km/h (4 Bft) 97,87 %
12.06.2019 16:56 19,7 C 19,4 C 18,9 C 71 % 1009,5 hPa 0,0 l/m 2 min 0 min 700 W/m 22,5 km/h (4 Bft) 97,87 %
12.06.2019 16:58 19,7 C 19,4 C 18,9 C 70 % 1009,5 hPa 0,0 l/m 0 min 0 min 240 W/m 12,9 km/h (3 Bft) 97,83 %
12.06.2019 17:00 19,7 C 18,9 C 18,9 C 70 % 1009,4 hPa 0,0 l/m 0 min 0 min 231 W/m 22,5 km/h (4 Bft) 100,00 %
12.06.2019 17:05 19,6 C 18,9 C 18,3 C 68 % 1009,4 hPa 0,0 l/m 0 min 0 min 217 W/m 25,7 km/h (4 Bft) 99,12 %
12.06.2019 17:10 19,7 C 20,0 C 19,4 C 70 % 1009,6 hPa 0,0 l/m 5 min 0 min 809 W/m 22,5 km/h (4 Bft) 100,00 %
12.06.2019 17:15 19,8 C 20,0 C 19,4 C 69 % 1009,5 hPa 0,0 l/m 5 min 0 min 751 W/m 22,5 km/h (4 Bft) 97,37 %
12.06.2019 17:20 20,0 C 20,6 C 19,4 C 67 % 1009,4 hPa 0,0 l/m 5 min 0 min 753 W/m 25,7 km/h (4 Bft) 98,25 %
12.06.2019 17:25 20,3 C 21,1 C 20,0 C 67 % 1009,5 hPa 0,0 l/m 5 min 0 min 796 W/m 19,3 km/h (3 Bft) 95,61 %
12.06.2019 17:30 20,4 C 20,6 C 19,4 C 66 % 1009,4 hPa 0,0 l/m 5 min 0 min 606 W/m 22,5 km/h (4 Bft) 95,61 %
12.06.2019 17:35 20,6 C 20,0 C 18,9 C 64 % 1009,5 hPa 0,0 l/m 5 min 0 min 697 W/m 22,5 km/h (4 Bft) 97,37 %
12.06.2019 17:40 20,6 C 20,0 C 18,9 C 64 % 1009,4 hPa 0,0 l/m 5 min 0 min 600 W/m 29,0 km/h (5 Bft) 98,25 %
12.06.2019 17:45 20,6 C 20,0 C 18,9 C 65 % 1009,3 hPa 0,0 l/m 0 min 0 min 145 W/m 12,9 km/h (3 Bft) 97,37 %
12.06.2019 17:50 20,6 C 19,4 C 18,9 C 65 % 1009,3 hPa 0,0 l/m 0 min 0 min 170 W/m 12,9 km/h (3 Bft) 100,00 %
12.06.2019 17:55 20,4 C 18,9 C 18,3 C 63 % 1009,4 hPa 0,0 l/m 0 min 0 min 157 W/m 29,0 km/h (5 Bft) 97,37 %
12.06.2019 18:00 20,3 C 18,9 C 18,3 C 63 % 1009,4 hPa 0,0 l/m 0 min 0 min 152 W/m 16,1 km/h (3 Bft) 99,12 %
12.06.2019 18:05 20,1 C 18,9 C 17,8 C 64 % 1009,4 hPa 0,0 l/m 0 min 0 min 102 W/m 25,7 km/h (4 Bft) 100,00 %
12.06.2019 18:10 19,9 C 18,3 C 17,8 C 64 % 1009,4 hPa 0,0 l/m 0 min 0 min 140 W/m 16,1 km/h (3 Bft) 99,12 %
12.06.2019 18:15 19,8 C 18,3 C 17,8 C 64 % 1009,3 hPa 0,0 l/m 0 min 0 min 93 W/m 19,3 km/h (3 Bft) 99,12 %
12.06.2019 18:20 19,6 C 18,3 C 17,8 C 64 % 1009,3 hPa 0,0 l/m 0 min 0 min 140 W/m 12,9 km/h (3 Bft) 100,00 %
12.06.2019 18:25 19,5 C 18,3 C 17,8 C 64 % 1009,4 hPa 0,0 l/m 0 min 0 min 117 W/m 22,5 km/h (4 Bft) 100,00 %
12.06.2019 18:30 19,4 C 18,9 C 18,3 C 65 % 1009,5 hPa 0,0 l/m 5 min 0 min 283 W/m 16,1 km/h (3 Bft) 100,00 %
12.06.2019 18:35 19,4 C 18,9 C 17,8 C 64 % 1009,4 hPa 0,0 l/m 0 min 0 min 184 W/m 16,1 km/h (3 Bft) 100,00 %
12.06.2019 18:40 19,4 C 19,4 C 18,3 C 64 % 1009,4 hPa 0,0 l/m 5 min 0 min 468 W/m 22,5 km/h (4 Bft) 100,00 %
12.06.2019 18:45 19,7 C 20,0 C 19,4 C 64 % 1009,4 hPa 0,0 l/m 5 min 0 min 455 W/m 25,7 km/h (4 Bft) 100,00 %
12.06.2019 18:50 19,9 C 20,0 C 18,9 C 62 % 1009,3 hPa 0,0 l/m 5 min 0 min 305 W/m 25,7 km/h (4 Bft) 100,00 %
12.06.2019 18:55 20,1 C 20,0 C 18,9 C 63 % 1009,2 hPa 0,0 l/m 5 min 0 min 433 W/m 22,5 km/h (4 Bft) 100,00 %
12.06.2019 19:00 20,2 C 20,6 C 20,0 C 63 % 1009,2 hPa 0,0 l/m 5 min 0 min 412 W/m 12,9 km/h (3 Bft) 100,00 %
12.06.2019 19:05 20,4 C 20,6 C 19,4 C 62 % 1009,3 hPa 0,0 l/m 5 min 0 min 399 W/m 16,1 km/h (3 Bft) 100,00 %
12.06.2019 19:10 20,6 C 20,6 C 19,4 C 61 % 1009,1 hPa 0,0 l/m 5 min 0 min 363 W/m 12,9 km/h (3 Bft) 100,00 %
12.06.2019 19:15 20,6 C 20,0 C 18,9 C 61 % 1009,2 hPa 0,0 l/m 0 min 0 min 98 W/m 16,1 km/h (3 Bft) 100,00 %
12.06.2019 19:20 20,6 C 19,4 C 18,9 C 60 % 1009,1 hPa 0,0 l/m 5 min 0 min 271 W/m 25,7 km/h (4 Bft) 100,00 %
12.06.2019 19:25 20,6 C 19,4 C 18,3 C 60 % 1009,1 hPa 0,0 l/m 5 min 0 min 325 W/m 22,5 km/h (4 Bft) 100,00 %
12.06.2019 19:30 20,6 C 20,0 C 18,9 C 60 % 1009,2 hPa 0,0 l/m 5 min 0 min 236 W/m 16,1 km/h (3 Bft) 100,00 %
12.06.2019 19:35 20,5 C 19,4 C 18,3 C 60 % 1009,2 hPa 0,0 l/m 0 min 0 min 57 W/m 22,5 km/h (4 Bft) 100,00 %
12.06.2019 19:40 20,4 C 19,4 C 18,9 C 61 % 1009,2 hPa 0,0 l/m 5 min 0 min 229 W/m 22,5 km/h (4 Bft) 100,00 %
12.06.2019 19:45 20,4 C 19,4 C 18,3 C 61 % 1009,1 hPa 0,0 l/m 5 min 0 min 241 W/m 16,1 km/h (3 Bft) 100,00 %
12.06.2019 19:50 20,4 C 19,4 C 18,3 C 60 % 1009,2 hPa 0,0 l/m 0 min 0 min 103 W/m 16,1 km/h (3 Bft) 100,00 %
12.06.2019 19:55 20,3 C 19,4 C 18,3 C 59 % 1009,2 hPa 0,0 l/m 0 min 0 min 48 W/m 22,5 km/h (4 Bft) 99,12 %
12.06.2019 20:00 20,2 C 18,9 C 18,3 C 58 % 1009,3 hPa 0,0 l/m 0 min 0 min 45 W/m 22,5 km/h (4 Bft) 98,25 %
12.06.2019 20:05 20,1 C 18,9 C 18,3 C 58 % 1009,2 hPa 0,0 l/m 0 min 0 min 37 W/m 29,0 km/h (5 Bft) 100,00 %
12.06.2019 20:10 20,0 C 18,9 C 18,3 C 59 % 1009,3 hPa 0,0 l/m 0 min 0 min 35 W/m 29,0 km/h (5 Bft) 100,00 %
12.06.2019 20:15 19,9 C 18,9 C 18,3 C 59 % 1009,3 hPa 0,0 l/m 0 min 0 min 33 W/m 19,3 km/h (3 Bft) 98,25 %
12.06.2019 20:20 19,8 C 18,9 C 18,3 C 59 % 1009,4 hPa 0,0 l/m 0 min 0 min 29 W/m 29,0 km/h (5 Bft) 100,00 %
12.06.2019 20:25 19,7 C 18,9 C 17,8 C 59 % 1009,5 hPa 0,0 l/m 0 min 0 min 29 W/m 25,7 km/h (4 Bft) 98,25 %
12.06.2019 20:30 19,6 C 18,9 C 17,8 C 60 % 1009,6 hPa 0,0 l/m 0 min 0 min 27 W/m 19,3 km/h (3 Bft) 98,25 %
12.06.2019 20:35 19,6 C 18,3 C 17,8 C 60 % 1009,7 hPa 0,0 l/m 0 min 0 min 26 W/m 19,3 km/h (3 Bft) 87,72 %
12.06.2019 20:40 19,5 C 18,3 C 17,8 C 60 % 1009,7 hPa 0,0 l/m 0 min 0 min 24 W/m 25,7 km/h (4 Bft) 85,09 %
12.06.2019 20:42 19,4 C 18,3 C 17,8 C 60 % 1009,7 hPa 0,0 l/m 0 min 0 min 23 W/m 6,4 km/h (2 Bft) 100,00 %
12.06.2019 20:44 19,4 C 18,3 C 17,8 C 61 % 1009,8 hPa 0,0 l/m 0 min 0 min 23 W/m 16,1 km/h (3 Bft) 98,04 %
12.06.2019 20:46 19,4 C 18,3 C 17,8 C 61 % 1009,8 hPa 0,0 l/m 0 min 0 min 21 W/m 9,7 km/h (2 Bft) 95,74 %
12.06.2019 20:48 19,4 C 18,3 C 17,8 C 61 % 1009,8 hPa 0,0 l/m 0 min 0 min 21 W/m 12,9 km/h (3 Bft) 95,74 %
12.06.2019 20:50 19,3 C 18,3 C 17,8 C 61 % 1009,8 hPa 0,0 l/m 0 min 0 min 20 W/m 12,9 km/h (3 Bft) 95,74 %
12.06.2019 20:52 19,3 C 18,3 C 17,8 C 61 % 1009,9 hPa 0,0 l/m 0 min 0 min 19 W/m 12,9 km/h (3 Bft) 93,62 %
12.06.2019 20:54 19,2 C 18,3 C 17,8 C 61 % 1009,9 hPa 0,0 l/m 0 min 0 min 19 W/m 16,1 km/h (3 Bft) 93,62 %
12.06.2019 20:56 19,2 C 18,3 C 17,8 C 61 % 1009,9 hPa 0,0 l/m 0 min 0 min 18 W/m 16,1 km/h (3 Bft) 97,83 %
12.06.2019 20:58 19,2 C 18,3 C 17,8 C 61 % 1009,9 hPa 0,0 l/m 0 min 0 min 18 W/m 12,9 km/h (3 Bft) 97,87 %
12.06.2019 21:00 19,2 C 18,3 C 17,2 C 61 % 1009,9 hPa 0,0 l/m 0 min 0 min 16 W/m 16,1 km/h (3 Bft) 97,87 %
12.06.2019 21:02 19,1 C 17,8 C 17,2 C 61 % 1010,0 hPa 0,0 l/m 0 min 0 min 16 W/m 16,1 km/h (3 Bft) 97,87 %
12.06.2019 21:04 19,1 C 17,8 C 17,2 C 62 % 1010,0 hPa 0,0 l/m 0 min 0 min 16 W/m 16,1 km/h (3 Bft) 97,87 %
12.06.2019 21:06 19,1 C 17,8 C 17,2 C 62 % 1010,0 hPa 0,0 l/m 0 min 0 min 15 W/m 6,4 km/h (2 Bft) 97,87 %
12.06.2019 21:08 19,1 C 17,8 C 17,2 C 62 % 1010,0 hPa 0,0 l/m 0 min 0 min 14 W/m 12,9 km/h (3 Bft) 97,87 %
12.06.2019 21:10 19,1 C 17,8 C 17,2 C 62 % 1010,1 hPa 0,0 l/m 0 min 0 min 14 W/m 12,9 km/h (3 Bft) 97,83 %
12.06.2019 21:12 19,0 C 17,8 C 17,2 C 63 % 1010,1 hPa 0,0 l/m 0 min 0 min 14 W/m 6,4 km/h (2 Bft) 97,87 %
12.06.2019 21:14 18,9 C 17,8 C 17,2 C 62 % 1010,2 hPa 0,0 l/m 0 min 0 min 12 W/m 12,9 km/h (3 Bft) 97,87 %
12.06.2019 21:16 18,9 C 17,8 C 17,2 C 63 % 1010,2 hPa 0,0 l/m 0 min 0 min 12 W/m 12,9 km/h (3 Bft) 97,87 %
12.06.2019 21:18 18,9 C 17,8 C 17,2 C 63 % 1010,1 hPa 0,0 l/m 0 min 0 min 12 W/m 9,7 km/h (2 Bft) 100,00 %
12.06.2019 21:20 18,9 C 17,8 C 17,2 C 63 % 1010,1 hPa 0,0 l/m 0 min 0 min 11 W/m 12,9 km/h (3 Bft) 97,83 %
12.06.2019 21:22 18,8 C 17,2 C 16,7 C 63 % 1010,2 hPa 0,0 l/m 0 min 0 min 11 W/m 9,7 km/h (2 Bft) 100,00 %
12.06.2019 21:24 18,8 C 17,2 C 16,7 C 63 % 1010,1 hPa 0,0 l/m 0 min 0 min 11 W/m 12,9 km/h (3 Bft) 100,00 %
12.06.2019 21:26 18,8 C 17,2 C 16,7 C 63 % 1010,2 hPa 0,0 l/m 0 min 0 min 11 W/m 9,7 km/h (2 Bft) 97,87 %
12.06.2019 21:28 18,7 C 17,2 C 16,7 C 64 % 1010,1 hPa 0,0 l/m 0 min 0 min 9 W/m 9,7 km/h (2 Bft) 100,00 %
12.06.2019 21:30 18,7 C 17,2 C 16,7 C 64 % 1010,1 hPa 0,0 l/m 0 min 0 min 9 W/m 9,7 km/h (2 Bft) 100,00 %
12.06.2019 21:32 18,7 C 17,2 C 16,7 C 64 % 1010,2 hPa 0,0 l/m 0 min 0 min 9 W/m 6,4 km/h (2 Bft) 100,00 %
12.06.2019 21:34 18,6 C 17,2 C 16,7 C 64 % 1010,1 hPa 0,0 l/m 0 min 0 min 7 W/m 9,7 km/h (2 Bft) 100,00 %
12.06.2019 21:36 18,6 C 17,2 C 16,7 C 64 % 1010,1 hPa 0,0 l/m 0 min 0 min 7 W/m 6,4 km/h (2 Bft) 100,00 %
12.06.2019 21:38 18,6 C 17,2 C 16,7 C 64 % 1010,1 hPa 0,0 l/m 0 min 0 min 7 W/m 6,4 km/h (2 Bft) 100,00 %
12.06.2019 21:40 18,5 C 16,7 C 16,7 C 64 % 1010,1 hPa 0,0 l/m 0 min 0 min 6 W/m 12,9 km/h (3 Bft) 100,00 %
12.06.2019 21:42 18,4 C 16,7 C 16,7 C 64 % 1010,1 hPa 0,0 l/m 0 min 0 min 5 W/m 9,7 km/h (2 Bft) 97,87 %
12.06.2019 21:44 18,4 C 16,7 C 16,7 C 64 % 1010,2 hPa 0,0 l/m 0 min 0 min 5 W/m 9,7 km/h (2 Bft) 100,00 %
12.06.2019 21:46 18,3 C 16,7 C 16,7 C 64 % 1010,2 hPa 0,0 l/m 0 min 0 min 5 W/m 16,1 km/h (3 Bft) 97,87 %
12.06.2019 21:48 18,3 C 16,7 C 16,7 C 64 % 1010,1 hPa 0,0 l/m 0 min 0 min 2 W/m 16,1 km/h (3 Bft) 100,00 %
12.06.2019 21:50 18,3 C 16,7 C 16,7 C 64 % 1010,2 hPa 0,0 l/m 0 min 0 min 0 W/m 9,7 km/h (2 Bft) 100,00 %
12.06.2019 21:52 18,2 C 16,7 C 16,7 C 65 % 1010,2 hPa 0,0 l/m 0 min 0 min 0 W/m 9,7 km/h (2 Bft) 100,00 %
12.06.2019 21:54 18,2 C 16,7 C 16,1 C 65 % 1010,2 hPa 0,0 l/m 0 min 0 min 0 W/m 16,1 km/h (3 Bft) 100,00 %
12.06.2019 21:56 18,1 C 16,7 C 16,1 C 65 % 1010,2 hPa 0,0 l/m 0 min 0 min 0 W/m 9,7 km/h (2 Bft) 100,00 %
12.06.2019 21:58 18,1 C 16,7 C 16,1 C 65 % 1010,3 hPa 0,0 l/m 0 min 0 min 0 W/m 9,7 km/h (2 Bft) 97,87 %
12.06.2019 22:00 18,1 C 16,7 C 16,1 C 65 % 1010,3 hPa 0,0 l/m 0 min 0 min 0 W/m 6,4 km/h (2 Bft) 97,87 %
12.06.2019 22:02 18,0 C 16,1 C 16,1 C 65 % 1010,3 hPa 0,0 l/m 0 min 0 min 0 W/m 9,7 km/h (2 Bft) 95,74 %
12.06.2019 22:04 17,9 C 16,1 C 16,1 C 65 % 1010,4 hPa 0,0 l/m 0 min 0 min 0 W/m 6,4 km/h (2 Bft) 97,87 %
12.06.2019 22:06 17,9 C 16,1 C 16,1 C 65 % 1010,4 hPa 0,0 l/m 0 min 0 min 0 W/m 12,9 km/h (3 Bft) 97,87 %
12.06.2019 22:08 17,9 C 16,1 C 16,1 C 66 % 1010,5 hPa 0,0 l/m 0 min 0 min 0 W/m 9,7 km/h (2 Bft) 97,83 %
12.06.2019 22:10 17,8 C 16,1 C 15,6 C 66 % 1010,5 hPa 0,0 l/m 0 min 0 min 0 W/m 12,9 km/h (3 Bft) 97,87 %
12.06.2019 22:12 17,8 C 16,1 C 15,6 C 66 % 1010,5 hPa 0,0 l/m 0 min 0 min 0 W/m 9,7 km/h (2 Bft) 97,87 %
12.06.2019 22:14 17,7 C 16,1 C 15,6 C 66 % 1010,5 hPa 0,0 l/m 0 min 0 min 0 W/m 9,7 km/h (2 Bft) 97,87 %
12.06.2019 22:16 17,7 C 16,1 C 15,6 C 67 % 1010,5 hPa 0,0 l/m 0 min 0 min 0 W/m 9,7 km/h (2 Bft) 97,87 %
12.06.2019 22:18 17,6 C 16,1 C 15,6 C 67 % 1010,6 hPa 0,0 l/m 0 min 0 min 0 W/m 9,7 km/h (2 Bft) 97,87 %
12.06.2019 22:20 17,6 C 16,1 C 15,6 C 67 % 1010,6 hPa 0,0 l/m 0 min 0 min 0 W/m 9,7 km/h (2 Bft) 91,30 %
12.06.2019 22:22 17,5 C 16,1 C 15,6 C 67 % 1010,6 hPa 0,0 l/m 0 min 0 min 0 W/m 12,9 km/h (3 Bft) 97,87 %
12.06.2019 22:24 17,4 C 16,1 C 15,6 C 67 % 1010,6 hPa 0,0 l/m 0 min 0 min 0 W/m 16,1 km/h (3 Bft) 95,74 %
12.06.2019 22:26 17,4 C 15,6 C 15,6 C 67 % 1010,6 hPa 0,0 l/m 0 min 0 min 0 W/m 9,7 km/h (2 Bft) 91,49 %
12.06.2019 22:28 17,3 C 15,6 C 15,6 C 67 % 1010,6 hPa 0,0 l/m 0 min 0 min 0 W/m 12,9 km/h (3 Bft) 95,74 %
12.06.2019 22:30 17,3 C 15,6 C 15,6 C 68 % 1010,6 hPa 0,0 l/m 0 min 0 min 0 W/m 12,9 km/h (3 Bft) 97,83 %
12.06.2019 22:32 17,2 C 15,6 C 15,6 C 68 % 1010,7 hPa 0,0 l/m 0 min 0 min 0 W/m 12,9 km/h (3 Bft) 97,87 %
12.06.2019 22:34 17,2 C 15,6 C 15,0 C 68 % 1010,7 hPa 0,0 l/m 0 min 0 min 0 W/m 6,4 km/h (2 Bft) 97,87 %
12.06.2019 22:36 17,1 C 15,6 C 15,0 C 68 % 1010,7 hPa 0,0 l/m 0 min 0 min 0 W/m 9,7 km/h (2 Bft) 95,74 %
12.06.2019 22:38 17,1 C 15,6 C 15,0 C 68 % 1010,7 hPa 0,0 l/m 0 min 0 min 0 W/m 12,9 km/h (3 Bft) 93,62 %
12.06.2019 22:40 17,1 C 15,6 C 15,0 C 68 % 1010,7 hPa 0,0 l/m 0 min 0 min 0 W/m 9,7 km/h (2 Bft) 95,74 %
12.06.2019 22:42 17,0 C 15,6 C 15,0 C 68 % 1010,8 hPa 0,0 l/m 0 min 0 min 0 W/m 9,7 km/h (2 Bft) 97,83 %
12.06.2019 22:44 16,9 C 15,6 C 15,0 C 68 % 1010,8 hPa 0,0 l/m 0 min 0 min 0 W/m 9,7 km/h (2 Bft) 97,87 %
12.06.2019 22:46 16,9 C 15,6 C 15,0 C 68 % 1010,8 hPa 0,0 l/m 0 min 0 min 0 W/m 9,7 km/h (2 Bft) 97,87 %
12.06.2019 22:48 16,8 C 15,6 C 15,0 C 68 % 1010,7 hPa 0,0 l/m 0 min 0 min 0 W/m 9,7 km/h (2 Bft) 100,00 %
12.06.2019 22:50 16,8 C 15,6 C 15,0 C 69 % 1010,7 hPa 0,0 l/m 0 min 0 min 0 W/m 6,4 km/h (2 Bft) 100,00 %
12.06.2019 22:52 16,8 C 15,6 C 15,0 C 69 % 1010,7 hPa 0,0 l/m 0 min 0 min 0 W/m 6,4 km/h (2 Bft) 100,00 %
12.06.2019 22:54 16,7 C 15,6 C 15,0 C 69 % 1010,7 hPa 0,0 l/m 0 min 0 min 0 W/m 6,4 km/h (2 Bft) 97,83 %
12.06.2019 22:56 16,7 C 15,6 C 15,0 C 69 % 1010,7 hPa 0,0 l/m 0 min 0 min 0 W/m 9,7 km/h (2 Bft) 95,74 %
12.06.2019 22:58 16,7 C 15,0 C 15,0 C 69 % 1010,8 hPa 0,0 l/m 0 min 0 min 0 W/m 6,4 km/h (2 Bft) 100,00 %
12.06.2019 23:00 16,7 C 15,0 C 15,0 C 69 % 1010,8 hPa 0,0 l/m 0 min 0 min 0 W/m 3,2 km/h (1 Bft) 97,87 %
12.06.2019 23:02 16,6 C 15,0 C 14,4 C 69 % 1010,8 hPa 0,0 l/m 0 min 0 min 0 W/m 6,4 km/h (2 Bft) 97,87 %
12.06.2019 23:04 16,6 C 15,0 C 14,4 C 69 % 1010,9 hPa 0,0 l/m 0 min 0 min 0 W/m 6,4 km/h (2 Bft) 97,87 %
12.06.2019 23:06 16,6 C 15,0 C 14,4 C 69 % 1010,9 hPa 0,0 l/m 0 min 0 min 0 W/m 6,4 km/h (2 Bft) 97,83 %
12.06.2019 23:08 16,6 C 15,0 C 14,4 C 69 % 1010,9 hPa 0,0 l/m 0 min 0 min 0 W/m 6,4 km/h (2 Bft) 100,00 %
12.06.2019 23:10 16,5 C 15,0 C 14,4 C 69 % 1010,9 hPa 0,0 l/m 0 min 0 min 0 W/m 6,4 km/h (2 Bft) 97,87 %
12.06.2019 23:12 16,5 C 15,0 C 14,4 C 70 % 1010,9 hPa 0,0 l/m 0 min 0 min 0 W/m 9,7 km/h (2 Bft) 97,87 %
12.06.2019 23:14 16,4 C 15,0 C 14,4 C 70 % 1010,9 hPa 0,0 l/m 0 min 0 min 0 W/m 6,4 km/h (2 Bft) 97,87 %
12.06.2019 23:16 16,4 C 15,0 C 14,4 C 70 % 1010,9 hPa 0,0 l/m 0 min 0 min 0 W/m 6,4 km/h (2 Bft) 97,87 %
12.06.2019 23:18 16,4 C 15,0 C 14,4 C 70 % 1010,9 hPa 0,0 l/m 0 min 0 min 0 W/m 9,7 km/h (2 Bft) 97,83 %
12.06.2019 23:20 16,3 C 15,0 C 14,4 C 70 % 1010,9 hPa 0,0 l/m 0 min 0 min 0 W/m 6,4 km/h (2 Bft) 97,87 %
12.06.2019 23:22 16,3 C 15,0 C 14,4 C 70 % 1010,9 hPa 0,0 l/m 0 min 0 min 0 W/m 9,7 km/h (2 Bft) 97,87 %
12.06.2019 23:24 16,3 C 15,0 C 14,4 C 71 % 1010,9 hPa 0,0 l/m 0 min 0 min 0 W/m 6,4 km/h (2 Bft) 97,87 %
12.06.2019 23:26 16,2 C 14,4 C 14,4 C 71 % 1011,0 hPa 0,0 l/m 0 min 0 min 0 W/m 3,2 km/h (1 Bft) 97,87 %
12.06.2019 23:28 16,2 C 14,4 C 13,9 C 71 % 1010,9 hPa 0,0 l/m 0 min 0 min 0 W/m 3,2 km/h (1 Bft) 97,83 %
12.06.2019 23:30 16,2 C 14,4 C 13,9 C 71 % 1010,9 hPa 0,0 l/m 0 min 0 min 0 W/m 3,2 km/h (1 Bft) 97,87 %
12.06.2019 23:32 16,2 C 14,4 C 13,9 C 71 % 1010,9 hPa 0,0 l/m 0 min 0 min 0 W/m 6,4 km/h (2 Bft) 93,62 %
12.06.2019 23:34 16,1 C 14,4 C 13,9 C 71 % 1010,9 hPa 0,0 l/m 0 min 0 min 0 W/m 3,2 km/h (1 Bft) 97,87 %
12.06.2019 23:36 16,1 C 14,4 C 13,9 C 71 % 1011,0 hPa 0,0 l/m 0 min 0 min 0 W/m 3,2 km/h (1 Bft) 97,87 %
12.06.2019 23:38 16,1 C 14,4 C 13,9 C 71 % 1011,0 hPa 0,0 l/m 0 min 0 min 0 W/m 3,2 km/h (1 Bft) 95,74 %
12.06.2019 23:40 16,0 C 14,4 C 13,3 C 72 % 1011,0 hPa 0,0 l/m 0 min 0 min 0 W/m 3,2 km/h (1 Bft) 93,62 %
12.06.2019 23:42 16,0 C 13,9 C 13,3 C 72 % 1011,0 hPa 0,0 l/m 0 min 0 min 0 W/m 3,2 km/h (1 Bft) 95,65 %
12.06.2019 23:44 15,9 C 13,9 C 13,3 C 72 % 1011,0 hPa 0,0 l/m 0 min 0 min 0 W/m 3,2 km/h (1 Bft) 95,74 %
12.06.2019 23:46 15,9 C 13,9 C 12,8 C 72 % 1010,9 hPa 0,0 l/m 0 min 0 min 0 W/m 0,0 km/h (0 Bft) 95,74 %
12.06.2019 23:48 15,9 C 13,9 C 12,8 C 72 % 1010,9 hPa 0,0 l/m 0 min 0 min 0 W/m 0,0 km/h (0 Bft) 95,74 %
12.06.2019 23:50 15,8 C 13,9 C 12,8 C 72 % 1011,0 hPa 0,0 l/m 0 min 0 min 0 W/m 3,2 km/h (1 Bft) 95,74 %
12.06.2019 23:52 15,8 C 13,9 C 12,8 C 72 % 1011,1 hPa 0,0 l/m 0 min 0 min 0 W/m 6,4 km/h (2 Bft) 95,65 %
12.06.2019 23:54 15,8 C 13,9 C 12,8 C 73 % 1011,1 hPa 0,0 l/m 0 min 0 min 0 W/m 9,7 km/h (2 Bft) 95,74 %
12.06.2019 23:56 15,7 C 13,9 C 12,8 C 73 % 1011,1 hPa 0,0 l/m 0 min 0 min 0 W/m 6,4 km/h (2 Bft) 97,87 %
12.06.2019 23:58 15,7 C 13,9 C 13,3 C 73 % 1011,2 hPa 0,0 l/m 0 min 0 min 0 W/m 9,7 km/h (2 Bft) 97,87 %
_ Min-Zeit 12:42 12:26 12:10 20:00 09:34 - - - - 00:08 20:40
Minimum _ 14,5 C 12,8 C 12,8 C 58 % 1006,8 hPa - - - - 0,0 km/h (0 Bft) 85,09 %
_ Max-Zeit 10:10 09:40 09:44 13:04 23:58 12:46 17:10 12:08 14:16 11:12 00:02
Maximum _ 22,5 C 28,3 C 30,6 C 96 % 1011,2 hPa 0,4 l/m 5 min 4 min 1144 W/m 45,1 km/h
S (6 Bft)
100,00 %
Durchschnitt _ 17,6 C 17,4 C 16,8 C 77 % 1009,2 hPa #5,0 l/m #4:19 h #2:50 h 236 W/m 11,2 km/h (2 Bft) 97,77 %
© 2019 W. Hausmann